Wetterdaten: Mittwoch, 01.11.2023
Datum Zeit Temp. Aussen Temp. o. S. Temp +5cm Feuchte Auss Luftdruck Regen Sonnenschein Regendauer Solar Windben Empfang
01.11.2023 00:00 11,5 C 10,6 C 7,2 C 96 % 1006,2 hPa 0,0 l/m 0 min 0 min 0 W/m 12,9 km/h (3 Bft) 95,65 %
01.11.2023 00:02 11,5 C 10,6 C 7,2 C 96 % 1006,1 hPa 0,0 l/m 0 min 0 min 0 W/m 9,7 km/h (2 Bft) 94,74 %
01.11.2023 00:04 11,5 C 10,6 C 7,2 C 96 % 1006,1 hPa 0,0 l/m 0 min 0 min 0 W/m 12,9 km/h (3 Bft) 97,92 %
01.11.2023 00:08 11,4 C 10,6 C 7,2 C 96 % 1006,0 hPa 0,0 l/m 0 min 0 min 0 W/m 12,9 km/h (3 Bft) 96,88 %
01.11.2023 00:10 11,5 C 10,6 C 7,2 C 96 % 1006,0 hPa 0,0 l/m 0 min 0 min 0 W/m 12,9 km/h (3 Bft) 100,00 %
01.11.2023 00:12 11,4 C 10,6 C 7,2 C 96 % 1006,0 hPa 0,0 l/m 0 min 0 min 0 W/m 3,2 km/h (1 Bft) 100,00 %
01.11.2023 00:16 11,4 C 10,6 C 7,2 C 96 % 1006,0 hPa 0,0 l/m 0 min 0 min 0 W/m 22,5 km/h (4 Bft) 98,94 %
01.11.2023 00:18 11,5 C 10,6 C 7,2 C 96 % 1006,0 hPa 0,0 l/m 0 min 0 min 0 W/m 9,7 km/h (2 Bft) 97,87 %
01.11.2023 00:20 11,4 C 10,6 C 7,2 C 96 % 1005,9 hPa 0,0 l/m 0 min 2 min 0 W/m 9,7 km/h (2 Bft) 97,87 %
01.11.2023 00:22 11,4 C 10,6 C 7,2 C 96 % 1006,0 hPa 0,0 l/m 0 min 2 min 0 W/m 12,9 km/h (3 Bft) 97,87 %
01.11.2023 00:24 11,4 C 10,6 C 7,2 C 96 % 1006,0 hPa 0,0 l/m 0 min 2 min 0 W/m 12,9 km/h (3 Bft) 95,65 %
01.11.2023 00:26 11,4 C 10,6 C 7,2 C 96 % 1005,9 hPa 0,0 l/m 0 min 0 min 0 W/m 9,7 km/h (2 Bft) 97,87 %
01.11.2023 00:28 11,4 C 10,6 C 7,2 C 96 % 1005,9 hPa 0,0 l/m 0 min 0 min 0 W/m 12,9 km/h (3 Bft) 97,87 %
01.11.2023 00:30 11,5 C 10,6 C 7,2 C 96 % 1005,9 hPa 0,0 l/m 0 min 0 min 0 W/m 12,9 km/h (3 Bft) 100,00 %
01.11.2023 00:32 11,5 C 10,6 C 7,2 C 96 % 1005,9 hPa 0,0 l/m 0 min 0 min 0 W/m 16,1 km/h (3 Bft) 100,00 %
01.11.2023 00:34 11,5 C 10,6 C 7,2 C 96 % 1005,9 hPa 0,0 l/m 0 min 0 min 0 W/m 9,7 km/h (2 Bft) 97,87 %
01.11.2023 00:36 11,5 C 10,6 C 7,2 C 96 % 1005,9 hPa 0,0 l/m 0 min 0 min 0 W/m 12,9 km/h (3 Bft) 97,87 %
01.11.2023 00:38 11,5 C 10,6 C 7,2 C 96 % 1005,9 hPa 0,0 l/m 0 min 0 min 0 W/m 9,7 km/h (2 Bft) 100,00 %
01.11.2023 00:40 11,4 C 10,6 C 7,2 C 96 % 1005,8 hPa 0,0 l/m 0 min 0 min 0 W/m 16,1 km/h (3 Bft) 97,83 %
01.11.2023 00:42 11,5 C 10,6 C 7,2 C 96 % 1005,9 hPa 0,0 l/m 0 min 0 min 0 W/m 19,3 km/h (3 Bft) 97,87 %
01.11.2023 00:44 11,5 C 10,6 C 7,2 C 96 % 1005,9 hPa 0,0 l/m 0 min 0 min 0 W/m 16,1 km/h (3 Bft) 100,00 %
01.11.2023 00:46 11,5 C 11,1 C 7,2 C 96 % 1005,9 hPa 0,0 l/m 0 min 0 min 0 W/m 16,1 km/h (3 Bft) 95,74 %
01.11.2023 00:48 11,4 C 11,1 C 7,2 C 96 % 1005,9 hPa 0,0 l/m 0 min 0 min 0 W/m 12,9 km/h (3 Bft) 97,87 %
01.11.2023 00:50 11,5 C 11,1 C 7,2 C 96 % 1005,9 hPa 0,0 l/m 0 min 0 min 0 W/m 25,7 km/h (4 Bft) 100,00 %
01.11.2023 00:52 11,5 C 11,1 C 7,2 C 96 % 1005,9 hPa 0,0 l/m 0 min 0 min 0 W/m 16,1 km/h (3 Bft) 97,87 %
01.11.2023 00:54 11,5 C 10,6 C 7,2 C 96 % 1005,9 hPa 0,0 l/m 0 min 0 min 0 W/m 12,9 km/h (3 Bft) 100,00 %
01.11.2023 00:56 11,5 C 10,6 C 7,2 C 96 % 1005,9 hPa 0,0 l/m 0 min 0 min 0 W/m 9,7 km/h (2 Bft) 100,00 %
01.11.2023 00:58 11,5 C 10,6 C 7,2 C 96 % 1005,9 hPa 0,0 l/m 0 min 0 min 0 W/m 19,3 km/h (3 Bft) 97,22 %
01.11.2023 01:00 11,5 C 10,6 C 7,2 C 96 % 1005,9 hPa 0,0 l/m 0 min 0 min 0 W/m 19,3 km/h (3 Bft) 100,00 %
01.11.2023 01:02 11,5 C 11,1 C 7,2 C 96 % 1005,9 hPa 0,0 l/m 0 min 0 min 0 W/m 12,9 km/h (3 Bft) 97,87 %
01.11.2023 01:04 11,5 C 11,1 C 7,2 C 96 % 1005,9 hPa 0,0 l/m 0 min 0 min 0 W/m 12,9 km/h (3 Bft) 98,08 %
01.11.2023 01:08 11,5 C 11,1 C 7,2 C 96 % 1005,9 hPa 0,0 l/m 0 min 0 min 0 W/m 16,1 km/h (3 Bft) 98,96 %
01.11.2023 01:09 11,5 C 11,1 C 7,2 C 96 % 1005,9 hPa 0,0 l/m 0 min 0 min 0 W/m 6,4 km/h (2 Bft) 95,83 %
01.11.2023 01:10 11,5 C 11,1 C 7,2 C 96 % 1005,9 hPa 0,0 l/m 0 min 0 min 0 W/m 12,9 km/h (3 Bft) 100,00 %
01.11.2023 01:14 11,5 C 11,1 C 7,2 C 96 % 1005,9 hPa 0,0 l/m 0 min 0 min 0 W/m 9,7 km/h (2 Bft) 100,00 %
01.11.2023 01:16 11,5 C 11,1 C 7,2 C 96 % 1005,9 hPa 0,0 l/m 0 min 0 min 0 W/m 12,9 km/h (3 Bft) 95,74 %
01.11.2023 01:18 11,5 C 11,1 C 7,2 C 96 % 1005,9 hPa 0,0 l/m 0 min 0 min 0 W/m 9,7 km/h (2 Bft) 100,00 %
01.11.2023 01:20 11,5 C 11,1 C 7,2 C 96 % 1005,9 hPa 0,0 l/m 0 min 0 min 0 W/m 9,7 km/h (2 Bft) 100,00 %
01.11.2023 01:22 11,6 C 11,1 C 7,2 C 96 % 1005,9 hPa 0,0 l/m 0 min 0 min 0 W/m 9,7 km/h (2 Bft) 95,74 %
01.11.2023 01:24 11,6 C 11,1 C 7,8 C 96 % 1005,9 hPa 0,0 l/m 0 min 0 min 0 W/m 12,9 km/h (3 Bft) 100,00 %
01.11.2023 01:26 11,6 C 11,1 C 7,8 C 96 % 1005,9 hPa 0,0 l/m 0 min 0 min 0 W/m 9,7 km/h (2 Bft) 100,00 %
01.11.2023 01:28 11,6 C 11,1 C 7,8 C 96 % 1005,8 hPa 0,0 l/m 0 min 0 min 0 W/m 9,7 km/h (2 Bft) 95,74 %
01.11.2023 01:30 11,6 C 11,1 C 7,8 C 96 % 1005,8 hPa 0,0 l/m 0 min 2 min 0 W/m 12,9 km/h (3 Bft) 100,00 %
01.11.2023 01:32 11,6 C 11,1 C 7,2 C 96 % 1005,8 hPa 0,0 l/m 0 min 2 min 0 W/m 16,1 km/h (3 Bft) 97,87 %
01.11.2023 01:34 11,6 C 11,1 C 7,2 C 96 % 1005,8 hPa 0,0 l/m 0 min 2 min 0 W/m 6,4 km/h (2 Bft) 95,65 %
01.11.2023 01:36 11,6 C 11,1 C 7,2 C 96 % 1005,8 hPa 0,0 l/m 0 min 2 min 0 W/m 12,9 km/h (3 Bft) 91,49 %
01.11.2023 01:38 11,6 C 11,1 C 7,2 C 96 % 1005,8 hPa 0,0 l/m 0 min 2 min 0 W/m 16,1 km/h (3 Bft) 95,74 %
01.11.2023 01:40 11,6 C 11,1 C 7,2 C 96 % 1005,7 hPa 0,2 l/m 0 min 2 min 0 W/m 16,1 km/h (3 Bft) 91,49 %
01.11.2023 01:42 11,6 C 11,1 C 7,2 C 96 % 1005,7 hPa 0,0 l/m 0 min 2 min 0 W/m 12,9 km/h (3 Bft) 93,62 %
01.11.2023 01:44 11,6 C 11,1 C 7,2 C 96 % 1005,6 hPa 0,0 l/m 0 min 2 min 0 W/m 6,4 km/h (2 Bft) 95,74 %
01.11.2023 01:46 11,6 C 11,1 C 7,2 C 96 % 1005,6 hPa 0,0 l/m 0 min 2 min 0 W/m 6,4 km/h (2 Bft) 95,74 %
01.11.2023 01:48 11,6 C 11,1 C 7,2 C 96 % 1005,5 hPa 0,0 l/m 0 min 0 min 0 W/m 6,4 km/h (2 Bft) 93,48 %
01.11.2023 01:50 11,6 C 11,1 C 7,2 C 96 % 1005,6 hPa 0,0 l/m 0 min 2 min 0 W/m 6,4 km/h (2 Bft) 91,49 %
01.11.2023 01:52 11,5 C 11,1 C 7,2 C 96 % 1005,5 hPa 0,0 l/m 0 min 2 min 0 W/m 12,9 km/h (3 Bft) 91,49 %
01.11.2023 01:54 11,5 C 10,6 C 7,2 C 96 % 1005,5 hPa 0,0 l/m 0 min 0 min 0 W/m 12,9 km/h (3 Bft) 94,23 %
01.11.2023 01:56 11,5 C 10,6 C 7,2 C 96 % 1005,5 hPa 0,0 l/m 0 min 0 min 0 W/m 6,4 km/h (2 Bft) 91,49 %
01.11.2023 01:58 11,5 C 10,6 C 7,2 C 96 % 1005,4 hPa 0,0 l/m 0 min 0 min 0 W/m 6,4 km/h (2 Bft) 93,62 %
01.11.2023 02:00 11,5 C 10,6 C 7,2 C 96 % 1005,4 hPa 0,0 l/m 0 min 0 min 0 W/m 3,2 km/h (1 Bft) 91,49 %
01.11.2023 02:02 11,5 C 10,6 C 7,2 C 96 % 1005,3 hPa 0,0 l/m 0 min 0 min 0 W/m 9,7 km/h (2 Bft) 89,13 %
01.11.2023 02:04 11,4 C 10,6 C 7,2 C 96 % 1005,3 hPa 0,0 l/m 0 min 0 min 0 W/m 6,4 km/h (2 Bft) 97,67 %
01.11.2023 02:06 11,4 C 10,6 C 7,2 C 96 % 1005,2 hPa 0,0 l/m 0 min 0 min 0 W/m 6,4 km/h (2 Bft) 92,31 %
01.11.2023 02:08 11,4 C 10,6 C 7,2 C 96 % 1005,2 hPa 0,0 l/m 0 min 0 min 0 W/m 3,2 km/h (1 Bft) 88,57 %
01.11.2023 02:10 11,4 C 10,6 C 7,2 C 96 % 1005,2 hPa 0,0 l/m 0 min 0 min 0 W/m 6,4 km/h (2 Bft) 93,62 %
01.11.2023 02:12 11,4 C 10,6 C 7,2 C 96 % 1005,2 hPa 0,0 l/m 0 min 0 min 0 W/m 0,0 km/h (0 Bft) 95,65 %
01.11.2023 02:14 11,4 C 10,6 C 7,2 C 96 % 1005,2 hPa 0,0 l/m 0 min 0 min 0 W/m 0,0 km/h (0 Bft) 95,74 %
01.11.2023 02:16 11,4 C 10,6 C 7,2 C 96 % 1005,1 hPa 0,0 l/m 0 min 0 min 0 W/m 3,2 km/h (1 Bft) 95,74 %
01.11.2023 02:18 11,4 C 10,6 C 7,2 C 96 % 1005,1 hPa 0,0 l/m 0 min 0 min 0 W/m 3,2 km/h (1 Bft) 94,74 %
01.11.2023 02:20 11,4 C 10,6 C 7,2 C 96 % 1005,2 hPa 0,0 l/m 0 min 0 min 0 W/m 3,2 km/h (1 Bft) 97,96 %
01.11.2023 02:22 11,4 C 10,6 C 7,2 C 96 % 1005,1 hPa 0,0 l/m 0 min 0 min 0 W/m 3,2 km/h (1 Bft) 96,30 %
01.11.2023 02:24 11,4 C 10,6 C 7,2 C 96 % 1005,0 hPa 0,0 l/m 0 min 0 min 0 W/m 3,2 km/h (1 Bft) 100,00 %
01.11.2023 02:26 11,4 C 10,6 C 7,2 C 96 % 1005,0 hPa 0,0 l/m 0 min 0 min 0 W/m 3,2 km/h (1 Bft) 95,92 %
01.11.2023 02:28 11,3 C 10,6 C 7,2 C 96 % 1005,0 hPa 0,0 l/m 0 min 0 min 0 W/m 6,4 km/h (2 Bft) 94,34 %
01.11.2023 02:30 11,4 C 10,6 C 7,2 C 96 % 1005,0 hPa 0,0 l/m 0 min 0 min 0 W/m 6,4 km/h (2 Bft) 97,37 %
01.11.2023 02:32 11,3 C 10,6 C 7,2 C 96 % 1005,0 hPa 0,0 l/m 0 min 0 min 0 W/m 3,2 km/h (1 Bft) 100,00 %
01.11.2023 02:34 11,3 C 10,6 C 7,2 C 96 % 1005,0 hPa 0,0 l/m 0 min 0 min 0 W/m 3,2 km/h (1 Bft) 100,00 %
01.11.2023 02:36 11,3 C 10,6 C 7,2 C 96 % 1004,9 hPa 0,0 l/m 0 min 0 min 0 W/m 6,4 km/h (2 Bft) 98,18 %
01.11.2023 02:38 11,3 C 10,6 C 7,2 C 96 % 1005,0 hPa 0,0 l/m 0 min 0 min 0 W/m 3,2 km/h (1 Bft) 100,00 %
01.11.2023 02:40 11,3 C 10,6 C 7,2 C 96 % 1005,0 hPa 0,0 l/m 0 min 0 min 0 W/m 3,2 km/h (1 Bft) 95,83 %
01.11.2023 02:42 11,3 C 10,6 C 7,2 C 96 % 1004,9 hPa 0,0 l/m 0 min 0 min 0 W/m 3,2 km/h (1 Bft) 100,00 %
01.11.2023 02:44 11,3 C 10,6 C 7,2 C 95 % 1004,8 hPa 0,0 l/m 0 min 0 min 0 W/m 0,0 km/h (0 Bft) 100,00 %
01.11.2023 02:46 11,3 C 10,6 C 7,2 C 96 % 1004,8 hPa 0,0 l/m 0 min 0 min 0 W/m 3,2 km/h (1 Bft) 97,37 %
01.11.2023 02:48 11,3 C 10,6 C 7,2 C 96 % 1004,8 hPa 0,0 l/m 0 min 0 min 0 W/m 6,4 km/h (2 Bft) 100,00 %
01.11.2023 02:50 11,3 C 10,6 C 7,2 C 96 % 1004,7 hPa 0,0 l/m 0 min 0 min 0 W/m 3,2 km/h (1 Bft) 97,87 %
01.11.2023 02:52 11,3 C 10,6 C 7,2 C 96 % 1004,7 hPa 0,0 l/m 0 min 0 min 0 W/m 3,2 km/h (1 Bft) 97,87 %
01.11.2023 02:54 11,3 C 10,6 C 7,2 C 96 % 1004,7 hPa 0,0 l/m 0 min 0 min 0 W/m 6,4 km/h (2 Bft) 98,11 %
01.11.2023 02:56 11,3 C 10,6 C 7,2 C 96 % 1004,6 hPa 0,0 l/m 0 min 0 min 0 W/m 3,2 km/h (1 Bft) 100,00 %
01.11.2023 02:58 11,2 C 10,6 C 7,2 C 96 % 1004,6 hPa 0,0 l/m 0 min 2 min 0 W/m 3,2 km/h (1 Bft) 100,00 %
01.11.2023 03:00 11,2 C 10,6 C 7,2 C 96 % 1004,6 hPa 0,0 l/m 0 min 2 min 0 W/m 6,4 km/h (2 Bft) 98,18 %
01.11.2023 03:02 11,2 C 10,6 C 7,2 C 96 % 1004,5 hPa 0,0 l/m 0 min 2 min 0 W/m 6,4 km/h (2 Bft) 95,74 %
01.11.2023 03:04 11,2 C 10,6 C 7,2 C 96 % 1004,5 hPa 0,0 l/m 0 min 2 min 0 W/m 6,4 km/h (2 Bft) 100,00 %
01.11.2023 03:08 11,2 C 10,6 C 7,2 C 96 % 1004,5 hPa 0,0 l/m 0 min 4 min 0 W/m 3,2 km/h (1 Bft) 98,88 %
01.11.2023 03:09 11,2 C 10,6 C 7,2 C 96 % 1004,5 hPa 0,0 l/m 0 min 1 min 0 W/m 3,2 km/h (1 Bft) 100,00 %
01.11.2023 03:12 11,2 C 10,6 C 7,2 C 96 % 1004,5 hPa 0,0 l/m 0 min 3 min 0 W/m 12,9 km/h (3 Bft) 98,59 %
01.11.2023 03:14 11,2 C 10,6 C 7,2 C 96 % 1004,5 hPa 0,0 l/m 0 min 2 min 0 W/m 6,4 km/h (2 Bft) 100,00 %
01.11.2023 03:16 11,2 C 10,6 C 7,2 C 96 % 1004,5 hPa 0,0 l/m 0 min 2 min 0 W/m 3,2 km/h (1 Bft) 100,00 %
01.11.2023 03:18 11,2 C 10,6 C 7,2 C 96 % 1004,5 hPa 0,0 l/m 0 min 2 min 0 W/m 3,2 km/h (1 Bft) 100,00 %
01.11.2023 03:20 11,2 C 10,6 C 7,2 C 96 % 1004,5 hPa 0,0 l/m 0 min 2 min 0 W/m 3,2 km/h (1 Bft) 100,00 %
01.11.2023 03:22 11,2 C 10,6 C 7,2 C 96 % 1004,5 hPa 0,0 l/m 0 min 2 min 0 W/m 0,0 km/h (0 Bft) 97,87 %
01.11.2023 03:24 11,2 C 10,6 C 7,2 C 96 % 1004,5 hPa 0,2 l/m 0 min 2 min 0 W/m 0,0 km/h (0 Bft) 100,00 %
01.11.2023 03:26 11,2 C 10,6 C 7,2 C 96 % 1004,4 hPa 0,0 l/m 0 min 2 min 0 W/m 0,0 km/h (0 Bft) 100,00 %
01.11.2023 03:28 11,2 C 10,6 C 7,2 C 96 % 1004,4 hPa 0,0 l/m 0 min 2 min 0 W/m 0,0 km/h (0 Bft) 97,87 %
01.11.2023 03:30 11,2 C 10,6 C 7,2 C 96 % 1004,4 hPa 0,0 l/m 0 min 2 min 0 W/m 3,2 km/h (1 Bft) 100,00 %
01.11.2023 03:32 11,2 C 10,6 C 7,2 C 96 % 1004,4 hPa 0,0 l/m 0 min 2 min 0 W/m 0,0 km/h (0 Bft) 97,87 %
01.11.2023 03:34 11,2 C 10,6 C 7,2 C 96 % 1004,3 hPa 0,0 l/m 0 min 0 min 0 W/m 0,0 km/h (0 Bft) 100,00 %
01.11.2023 03:36 11,2 C 10,6 C 7,2 C 96 % 1004,3 hPa 0,0 l/m 0 min 2 min 0 W/m 0,0 km/h (0 Bft) 95,74 %
01.11.2023 03:38 11,2 C 10,6 C 7,2 C 96 % 1004,3 hPa 0,0 l/m 0 min 2 min 0 W/m 0,0 km/h (0 Bft) 97,87 %
01.11.2023 03:40 11,2 C 10,6 C 7,2 C 96 % 1004,3 hPa 0,0 l/m 0 min 2 min 0 W/m 3,2 km/h (1 Bft) 95,65 %
01.11.2023 03:42 11,2 C 10,6 C 7,2 C 96 % 1004,3 hPa 0,2 l/m 0 min 2 min 0 W/m 6,4 km/h (2 Bft) 97,87 %
01.11.2023 03:44 11,2 C 10,6 C 7,2 C 96 % 1004,2 hPa 0,0 l/m 0 min 2 min 0 W/m 3,2 km/h (1 Bft) 97,87 %
01.11.2023 03:46 11,2 C 10,6 C 7,2 C 96 % 1004,2 hPa 0,0 l/m 0 min 2 min 0 W/m 6,4 km/h (2 Bft) 97,87 %
01.11.2023 03:48 11,2 C 10,6 C 7,2 C 96 % 1004,1 hPa 0,0 l/m 0 min 2 min 0 W/m 3,2 km/h (1 Bft) 95,74 %
01.11.2023 03:50 11,2 C 10,6 C 7,2 C 96 % 1004,1 hPa 0,0 l/m 0 min 2 min 0 W/m 6,4 km/h (2 Bft) 97,87 %
01.11.2023 03:52 11,2 C 10,6 C 7,2 C 96 % 1004,1 hPa 0,2 l/m 0 min 2 min 0 W/m 9,7 km/h (2 Bft) 95,74 %
01.11.2023 03:54 11,2 C 10,6 C 7,2 C 96 % 1004,1 hPa 0,0 l/m 0 min 2 min 0 W/m 6,4 km/h (2 Bft) 95,74 %
01.11.2023 03:56 11,2 C 10,0 C 7,2 C 96 % 1004,1 hPa 0,0 l/m 0 min 2 min 0 W/m 12,9 km/h (3 Bft) 95,65 %
01.11.2023 03:58 11,2 C 10,0 C 7,2 C 96 % 1004,0 hPa 0,2 l/m 0 min 2 min 0 W/m 3,2 km/h (1 Bft) 88,89 %
01.11.2023 04:04 11,1 C 10,0 C 7,2 C 96 % 1003,8 hPa 0,4 l/m 0 min 5 min 0 W/m 9,7 km/h (2 Bft) 98,96 %
01.11.2023 04:05 11,1 C 10,0 C 7,2 C 96 % 1003,8 hPa 0,0 l/m 0 min 1 min 0 W/m 6,4 km/h (2 Bft) 91,30 %
01.11.2023 04:08 11,1 C 10,0 C 7,2 C 96 % 1003,7 hPa 0,0 l/m 0 min 3 min 0 W/m 6,4 km/h (2 Bft) 97,14 %
01.11.2023 04:10 11,1 C 10,0 C 7,2 C 96 % 1003,8 hPa 0,0 l/m 0 min 2 min 0 W/m 6,4 km/h (2 Bft) 95,74 %
01.11.2023 04:12 11,1 C 10,0 C 7,2 C 96 % 1003,8 hPa 0,2 l/m 0 min 2 min 0 W/m 6,4 km/h (2 Bft) 97,87 %
01.11.2023 04:14 11,1 C 10,0 C 7,2 C 96 % 1003,8 hPa 0,0 l/m 0 min 0 min 0 W/m 3,2 km/h (1 Bft) 97,87 %
01.11.2023 04:16 11,1 C 10,0 C 7,2 C 96 % 1003,7 hPa 0,0 l/m 0 min 2 min 0 W/m 6,4 km/h (2 Bft) 95,74 %
01.11.2023 04:18 11,1 C 10,0 C 7,2 C 96 % 1003,7 hPa 0,0 l/m 0 min 0 min 0 W/m 12,9 km/h (3 Bft) 100,00 %
01.11.2023 04:20 11,1 C 10,0 C 7,2 C 96 % 1003,8 hPa 0,0 l/m 0 min 0 min 0 W/m 6,4 km/h (2 Bft) 97,87 %
01.11.2023 04:22 11,1 C 10,0 C 7,2 C 96 % 1003,7 hPa 0,0 l/m 0 min 0 min 0 W/m 3,2 km/h (1 Bft) 95,74 %
01.11.2023 04:24 11,1 C 10,0 C 7,2 C 97 % 1003,7 hPa 0,0 l/m 0 min 2 min 0 W/m 6,4 km/h (2 Bft) 95,65 %
01.11.2023 04:26 11,1 C 10,0 C 7,2 C 97 % 1003,8 hPa 0,0 l/m 0 min 0 min 0 W/m 6,4 km/h (2 Bft) 97,87 %
01.11.2023 04:28 11,1 C 10,0 C 7,2 C 97 % 1003,8 hPa 0,0 l/m 0 min 2 min 0 W/m 3,2 km/h (1 Bft) 97,87 %
01.11.2023 04:30 11,0 C 10,0 C 7,2 C 97 % 1003,7 hPa 0,0 l/m 0 min 0 min 0 W/m 6,4 km/h (2 Bft) 97,87 %
01.11.2023 04:32 11,0 C 10,0 C 7,2 C 97 % 1003,6 hPa 0,0 l/m 0 min 0 min 0 W/m 12,9 km/h (3 Bft) 95,74 %
01.11.2023 04:34 11,0 C 10,0 C 7,2 C 97 % 1003,5 hPa 0,0 l/m 0 min 0 min 0 W/m 12,9 km/h (3 Bft) 100,00 %
01.11.2023 04:36 11,0 C 10,0 C 7,2 C 97 % 1003,5 hPa 0,0 l/m 0 min 0 min 0 W/m 12,9 km/h (3 Bft) 100,00 %
01.11.2023 04:38 11,0 C 10,0 C 7,2 C 97 % 1003,4 hPa 0,0 l/m 0 min 0 min 0 W/m 12,9 km/h (3 Bft) 100,00 %
01.11.2023 04:40 11,0 C 10,0 C 7,2 C 97 % 1003,4 hPa 0,0 l/m 0 min 0 min 0 W/m 9,7 km/h (2 Bft) 100,00 %
01.11.2023 04:42 11,0 C 10,0 C 7,2 C 97 % 1003,4 hPa 0,0 l/m 0 min 0 min 0 W/m 12,9 km/h (3 Bft) 100,00 %
01.11.2023 04:44 10,9 C 10,0 C 7,2 C 97 % 1003,5 hPa 0,2 l/m 0 min 2 min 0 W/m 3,2 km/h (1 Bft) 97,87 %
01.11.2023 04:46 10,9 C 10,0 C 7,2 C 97 % 1003,4 hPa 0,0 l/m 0 min 2 min 0 W/m 6,4 km/h (2 Bft) 97,14 %
01.11.2023 04:48 10,9 C 10,0 C 7,2 C 97 % 1003,4 hPa 0,0 l/m 0 min 2 min 0 W/m 6,4 km/h (2 Bft) 97,87 %
01.11.2023 04:50 10,9 C 10,0 C 7,2 C 97 % 1003,4 hPa 0,0 l/m 0 min 2 min 0 W/m 6,4 km/h (2 Bft) 97,87 %
01.11.2023 04:52 10,9 C 10,0 C 7,2 C 97 % 1003,4 hPa 0,0 l/m 0 min 2 min 0 W/m 16,1 km/h (3 Bft) 97,87 %
01.11.2023 04:54 10,9 C 10,0 C 7,2 C 97 % 1003,3 hPa 0,2 l/m 0 min 2 min 0 W/m 16,1 km/h (3 Bft) 97,83 %
01.11.2023 04:56 10,9 C 10,0 C 7,2 C 97 % 1003,3 hPa 0,0 l/m 0 min 2 min 0 W/m 12,9 km/h (3 Bft) 98,21 %
01.11.2023 04:58 10,9 C 10,0 C 7,2 C 97 % 1003,4 hPa 0,0 l/m 0 min 2 min 0 W/m 6,4 km/h (2 Bft) 95,92 %
01.11.2023 05:00 11,0 C 10,0 C 7,2 C 97 % 1003,4 hPa 0,2 l/m 0 min 2 min 0 W/m 12,9 km/h (3 Bft) 100,00 %
01.11.2023 05:02 11,0 C 10,0 C 7,2 C 97 % 1003,4 hPa 0,0 l/m 0 min 2 min 0 W/m 3,2 km/h (1 Bft) 100,00 %
01.11.2023 05:04 11,0 C 10,0 C 7,2 C 97 % 1003,4 hPa 0,0 l/m 0 min 2 min 0 W/m 9,7 km/h (2 Bft) 97,87 %
01.11.2023 05:06 11,0 C 10,0 C 7,2 C 98 % 1003,4 hPa 0,0 l/m 0 min 2 min 0 W/m 19,3 km/h (3 Bft) 100,00 %
01.11.2023 05:08 11,0 C 10,0 C 7,2 C 98 % 1003,3 hPa 0,0 l/m 0 min 2 min 0 W/m 12,9 km/h (3 Bft) 97,87 %
01.11.2023 05:12 11,0 C 10,0 C 7,2 C 98 % 1003,3 hPa 0,2 l/m 0 min 4 min 0 W/m 6,4 km/h (2 Bft) 100,00 %
01.11.2023 05:14 11,1 C 10,0 C 7,2 C 98 % 1003,3 hPa 0,0 l/m 0 min 2 min 0 W/m 12,9 km/h (3 Bft) 98,15 %
01.11.2023 05:16 11,1 C 10,0 C 7,2 C 98 % 1003,3 hPa 0,0 l/m 0 min 2 min 0 W/m 6,4 km/h (2 Bft) 97,87 %
01.11.2023 05:18 11,1 C 10,0 C 7,2 C 98 % 1003,3 hPa 0,0 l/m 0 min 2 min 0 W/m 6,4 km/h (2 Bft) 95,74 %
01.11.2023 05:20 11,1 C 10,0 C 7,2 C 98 % 1003,3 hPa 0,2 l/m 0 min 2 min 0 W/m 12,9 km/h (3 Bft) 95,74 %
01.11.2023 05:22 11,1 C 10,0 C 7,2 C 98 % 1003,2 hPa 0,0 l/m 0 min 2 min 0 W/m 9,7 km/h (2 Bft) 97,87 %
01.11.2023 05:24 11,1 C 10,0 C 7,8 C 98 % 1003,2 hPa 0,0 l/m 0 min 2 min 0 W/m 6,4 km/h (2 Bft) 95,65 %
01.11.2023 05:26 11,1 C 10,0 C 7,8 C 98 % 1003,2 hPa 0,0 l/m 0 min 2 min 0 W/m 12,9 km/h (3 Bft) 97,87 %
01.11.2023 05:28 11,1 C 10,0 C 7,8 C 98 % 1003,1 hPa 0,2 l/m 0 min 2 min 0 W/m 12,9 km/h (3 Bft) 95,74 %
01.11.2023 05:30 11,1 C 10,6 C 7,8 C 98 % 1003,1 hPa 0,0 l/m 0 min 2 min 0 W/m 6,4 km/h (2 Bft) 95,74 %
01.11.2023 05:32 11,1 C 10,6 C 7,8 C 98 % 1003,1 hPa 0,2 l/m 0 min 2 min 0 W/m 12,9 km/h (3 Bft) 95,74 %
01.11.2023 05:34 11,1 C 10,6 C 7,8 C 98 % 1003,1 hPa 0,0 l/m 0 min 2 min 0 W/m 12,9 km/h (3 Bft) 93,62 %
01.11.2023 05:36 11,2 C 10,6 C 7,8 C 98 % 1003,1 hPa 0,0 l/m 0 min 2 min 0 W/m 12,9 km/h (3 Bft) 97,87 %
01.11.2023 05:38 11,2 C 10,6 C 7,8 C 98 % 1003,1 hPa 0,0 l/m 0 min 2 min 0 W/m 12,9 km/h (3 Bft) 95,65 %
01.11.2023 05:40 11,2 C 10,6 C 7,8 C 98 % 1003,1 hPa 0,2 l/m 0 min 2 min 0 W/m 6,4 km/h (2 Bft) 95,74 %
01.11.2023 05:42 11,2 C 10,6 C 7,8 C 98 % 1003,2 hPa 0,0 l/m 0 min 2 min 0 W/m 12,9 km/h (3 Bft) 97,87 %
01.11.2023 05:44 11,3 C 10,6 C 7,8 C 98 % 1003,1 hPa 0,0 l/m 0 min 2 min 0 W/m 12,9 km/h (3 Bft) 93,62 %
01.11.2023 05:46 11,3 C 10,6 C 7,8 C 98 % 1003,1 hPa 0,2 l/m 0 min 2 min 0 W/m 12,9 km/h (3 Bft) 97,87 %
01.11.2023 05:50 11,3 C 10,6 C 7,8 C 98 % 1003,1 hPa 0,0 l/m 0 min 4 min 0 W/m 16,1 km/h (3 Bft) 99,12 %
01.11.2023 05:52 11,3 C 10,6 C 7,8 C 98 % 1003,1 hPa 0,2 l/m 0 min 2 min 0 W/m 6,4 km/h (2 Bft) 100,00 %
01.11.2023 05:54 11,3 C 10,6 C 7,8 C 98 % 1003,1 hPa 0,0 l/m 0 min 2 min 0 W/m 12,9 km/h (3 Bft) 95,83 %
01.11.2023 05:56 11,3 C 10,6 C 7,8 C 98 % 1003,0 hPa 0,0 l/m 0 min 2 min 0 W/m 9,7 km/h (2 Bft) 95,74 %
01.11.2023 05:58 11,3 C 10,6 C 7,8 C 98 % 1003,0 hPa 0,2 l/m 0 min 2 min 0 W/m 3,2 km/h (1 Bft) 97,37 %
01.11.2023 06:00 11,4 C 10,6 C 7,8 C 98 % 1003,0 hPa 0,0 l/m 0 min 2 min 0 W/m 16,1 km/h (3 Bft) 96,23 %
01.11.2023 06:02 11,4 C 10,6 C 7,8 C 98 % 1003,0 hPa 0,0 l/m 0 min 2 min 0 W/m 6,4 km/h (2 Bft) 100,00 %
01.11.2023 06:04 11,4 C 10,6 C 7,8 C 98 % 1003,1 hPa 0,0 l/m 0 min 2 min 0 W/m 6,4 km/h (2 Bft) 100,00 %
01.11.2023 06:08 11,4 C 10,6 C 7,8 C 98 % 1003,0 hPa 0,0 l/m 0 min 0 min 0 W/m 9,7 km/h (2 Bft) 98,90 %
01.11.2023 06:09 11,4 C 10,6 C 7,8 C 98 % 1003,0 hPa 0,0 l/m 0 min 0 min 0 W/m 9,7 km/h (2 Bft) 100,00 %
01.11.2023 06:10 11,4 C 10,6 C 7,8 C 98 % 1003,0 hPa 0,0 l/m 0 min 0 min 0 W/m 9,7 km/h (2 Bft) 100,00 %
01.11.2023 06:14 11,4 C 10,6 C 7,8 C 99 % 1003,0 hPa 0,0 l/m 0 min 0 min 0 W/m 6,4 km/h (2 Bft) 97,87 %
01.11.2023 06:16 11,4 C 10,6 C 7,8 C 99 % 1002,9 hPa 0,0 l/m 0 min 0 min 0 W/m 12,9 km/h (3 Bft) 97,87 %
01.11.2023 06:18 11,5 C 10,6 C 7,8 C 99 % 1002,9 hPa 0,2 l/m 0 min 0 min 0 W/m 12,9 km/h (3 Bft) 97,83 %
01.11.2023 06:20 11,5 C 10,6 C 7,8 C 99 % 1002,9 hPa 0,0 l/m 0 min 0 min 0 W/m 6,4 km/h (2 Bft) 100,00 %
01.11.2023 06:22 11,5 C 10,6 C 7,8 C 99 % 1002,9 hPa 0,0 l/m 0 min 0 min 0 W/m 6,4 km/h (2 Bft) 100,00 %
01.11.2023 06:24 11,5 C 10,6 C 7,8 C 99 % 1002,9 hPa 0,0 l/m 0 min 0 min 0 W/m 9,7 km/h (2 Bft) 97,87 %
01.11.2023 06:26 11,6 C 10,6 C 7,8 C 99 % 1002,9 hPa 0,0 l/m 0 min 0 min 0 W/m 12,9 km/h (3 Bft) 95,65 %
01.11.2023 06:28 11,6 C 10,6 C 7,8 C 99 % 1002,9 hPa 0,0 l/m 0 min 0 min 0 W/m 3,2 km/h (1 Bft) 97,87 %
01.11.2023 06:30 11,6 C 10,6 C 7,8 C 99 % 1002,8 hPa 0,0 l/m 0 min 0 min 0 W/m 6,4 km/h (2 Bft) 97,87 %
01.11.2023 06:32 11,6 C 10,6 C 7,8 C 99 % 1002,7 hPa 0,0 l/m 0 min 0 min 0 W/m 12,9 km/h (3 Bft) 95,74 %
01.11.2023 06:34 11,6 C 10,6 C 7,8 C 99 % 1002,7 hPa 0,0 l/m 0 min 0 min 0 W/m 9,7 km/h (2 Bft) 95,74 %
01.11.2023 06:36 11,6 C 10,6 C 7,8 C 99 % 1002,7 hPa 0,0 l/m 0 min 0 min 0 W/m 3,2 km/h (1 Bft) 97,87 %
01.11.2023 06:38 11,6 C 10,6 C 7,8 C 99 % 1002,7 hPa 0,0 l/m 0 min 0 min 0 W/m 6,4 km/h (2 Bft) 97,87 %
01.11.2023 06:40 11,6 C 10,6 C 7,8 C 99 % 1002,7 hPa 0,0 l/m 0 min 0 min 0 W/m 6,4 km/h (2 Bft) 97,87 %
01.11.2023 06:42 11,6 C 10,6 C 7,8 C 99 % 1002,7 hPa 0,0 l/m 0 min 0 min 0 W/m 6,4 km/h (2 Bft) 97,83 %
01.11.2023 06:44 11,6 C 10,6 C 7,8 C 99 % 1002,7 hPa 0,0 l/m 0 min 0 min 0 W/m 6,4 km/h (2 Bft) 97,87 %
01.11.2023 06:46 11,6 C 10,6 C 7,8 C 99 % 1002,7 hPa 0,0 l/m 0 min 0 min 0 W/m 3,2 km/h (1 Bft) 97,87 %
01.11.2023 06:48 11,6 C 10,6 C 7,8 C 99 % 1002,7 hPa 0,0 l/m 0 min 0 min 0 W/m 3,2 km/h (1 Bft) 97,87 %
01.11.2023 06:50 11,6 C 10,6 C 7,8 C 99 % 1002,7 hPa 0,0 l/m 0 min 0 min 0 W/m 9,7 km/h (2 Bft) 97,87 %
01.11.2023 06:52 11,6 C 10,6 C 7,8 C 99 % 1002,8 hPa 0,0 l/m 0 min 0 min 0 W/m 9,7 km/h (2 Bft) 95,74 %
01.11.2023 06:54 11,6 C 10,6 C 7,8 C 99 % 1002,7 hPa 0,0 l/m 0 min 0 min 0 W/m 12,9 km/h (3 Bft) 97,92 %
01.11.2023 06:56 11,6 C 10,6 C 7,8 C 99 % 1002,7 hPa 0,0 l/m 0 min 0 min 0 W/m 3,2 km/h (1 Bft) 97,87 %
01.11.2023 06:58 11,6 C 10,6 C 7,8 C 99 % 1002,7 hPa 0,0 l/m 0 min 0 min 0 W/m 25,7 km/h (4 Bft) 97,83 %
01.11.2023 07:00 11,6 C 10,6 C 7,8 C 99 % 1002,7 hPa 0,0 l/m 0 min 0 min 0 W/m 16,1 km/h (3 Bft) 95,74 %
01.11.2023 07:02 11,6 C 10,6 C 7,8 C 99 % 1002,7 hPa 0,0 l/m 0 min 0 min 0 W/m 9,7 km/h (2 Bft) 97,87 %
01.11.2023 07:04 11,6 C 10,6 C 7,8 C 99 % 1002,7 hPa 0,0 l/m 0 min 0 min 0 W/m 16,1 km/h (3 Bft) 97,73 %
01.11.2023 07:08 11,6 C 10,6 C 7,8 C 99 % 1002,7 hPa 0,0 l/m 0 min 0 min 0 W/m 12,9 km/h (3 Bft) 99,01 %
01.11.2023 07:09 11,5 C 10,6 C 7,8 C 99 % 1002,7 hPa 0,0 l/m 0 min 0 min 0 W/m 6,4 km/h (2 Bft) 100,00 %
01.11.2023 07:12 11,5 C 10,6 C 7,8 C 99 % 1002,7 hPa 0,0 l/m 0 min 0 min 0 W/m 19,3 km/h (3 Bft) 100,00 %
01.11.2023 07:14 11,5 C 10,6 C 7,8 C 99 % 1002,7 hPa 0,0 l/m 0 min 0 min 0 W/m 9,7 km/h (2 Bft) 100,00 %
01.11.2023 07:16 11,5 C 10,6 C 7,8 C 99 % 1002,8 hPa 0,0 l/m 0 min 0 min 0 W/m 3,2 km/h (1 Bft) 95,74 %
01.11.2023 07:18 11,4 C 10,6 C 7,8 C 99 % 1002,7 hPa 0,0 l/m 0 min 0 min 0 W/m 6,4 km/h (2 Bft) 97,87 %
01.11.2023 07:20 11,4 C 10,6 C 7,8 C 99 % 1002,8 hPa 0,0 l/m 0 min 0 min 0 W/m 12,9 km/h (3 Bft) 95,74 %
01.11.2023 07:22 11,4 C 10,6 C 7,8 C 99 % 1002,8 hPa 0,0 l/m 0 min 0 min 0 W/m 9,7 km/h (2 Bft) 95,74 %
01.11.2023 07:24 11,4 C 10,6 C 7,8 C 99 % 1002,9 hPa 0,0 l/m 0 min 0 min 0 W/m 16,1 km/h (3 Bft) 97,87 %
01.11.2023 07:26 11,4 C 10,6 C 7,8 C 99 % 1002,8 hPa 0,0 l/m 0 min 0 min 0 W/m 12,9 km/h (3 Bft) 95,74 %
01.11.2023 07:28 11,4 C 10,6 C 7,8 C 99 % 1002,9 hPa 0,0 l/m 0 min 0 min 1 W/m 16,1 km/h (3 Bft) 97,83 %
01.11.2023 07:30 11,4 C 10,6 C 7,8 C 99 % 1002,9 hPa 0,0 l/m 0 min 0 min 5 W/m 12,9 km/h (3 Bft) 97,87 %
01.11.2023 07:32 11,4 C 10,6 C 7,8 C 99 % 1002,9 hPa 0,0 l/m 0 min 0 min 5 W/m 12,9 km/h (3 Bft) 97,87 %
01.11.2023 07:34 11,3 C 10,6 C 7,8 C 99 % 1002,9 hPa 0,0 l/m 0 min 0 min 5 W/m 9,7 km/h (2 Bft) 95,74 %
01.11.2023 07:36 11,3 C 10,6 C 7,8 C 99 % 1002,9 hPa 0,0 l/m 0 min 0 min 5 W/m 6,4 km/h (2 Bft) 97,87 %
01.11.2023 07:38 11,3 C 10,6 C 7,8 C 99 % 1002,9 hPa 0,0 l/m 0 min 0 min 6 W/m 9,7 km/h (2 Bft) 95,74 %
01.11.2023 07:40 11,3 C 10,6 C 7,8 C 99 % 1003,0 hPa 0,0 l/m 0 min 0 min 7 W/m 3,2 km/h (1 Bft) 93,62 %
01.11.2023 07:42 11,3 C 10,6 C 7,8 C 99 % 1002,9 hPa 0,0 l/m 0 min 0 min 8 W/m 6,4 km/h (2 Bft) 93,48 %
01.11.2023 07:44 11,3 C 10,6 C 7,8 C 99 % 1002,9 hPa 0,0 l/m 0 min 0 min 9 W/m 6,4 km/h (2 Bft) 93,62 %
01.11.2023 07:46 11,3 C 10,6 C 7,8 C 99 % 1002,9 hPa 0,0 l/m 0 min 0 min 10 W/m 6,4 km/h (2 Bft) 95,74 %
01.11.2023 07:48 11,3 C 10,6 C 7,8 C 99 % 1002,9 hPa 0,0 l/m 0 min 0 min 11 W/m 6,4 km/h (2 Bft) 95,74 %
01.11.2023 07:50 11,3 C 10,6 C 7,8 C 99 % 1002,9 hPa 0,0 l/m 0 min 0 min 12 W/m 6,4 km/h (2 Bft) 95,74 %
01.11.2023 07:52 11,3 C 10,6 C 7,8 C 99 % 1002,9 hPa 0,0 l/m 0 min 0 min 13 W/m 3,2 km/h (1 Bft) 95,74 %
01.11.2023 07:54 11,3 C 10,6 C 7,8 C 99 % 1002,9 hPa 0,0 l/m 0 min 0 min 14 W/m 6,4 km/h (2 Bft) 93,62 %
01.11.2023 07:56 11,3 C 10,6 C 7,8 C 99 % 1002,9 hPa 0,0 l/m 0 min 0 min 16 W/m 3,2 km/h (1 Bft) 98,04 %
01.11.2023 07:58 11,2 C 10,6 C 7,8 C 99 % 1002,9 hPa 0,0 l/m 0 min 0 min 16 W/m 3,2 km/h (1 Bft) 95,35 %
01.11.2023 08:00 11,3 C 10,6 C 7,8 C 99 % 1002,9 hPa 0,0 l/m 0 min 0 min 16 W/m 6,4 km/h (2 Bft) 97,87 %
01.11.2023 08:02 11,3 C 10,6 C 7,8 C 99 % 1002,9 hPa 0,0 l/m 0 min 0 min 17 W/m 6,4 km/h (2 Bft) 95,74 %
01.11.2023 08:04 11,3 C 10,6 C 7,8 C 99 % 1002,9 hPa 0,0 l/m 0 min 0 min 18 W/m 6,4 km/h (2 Bft) 98,04 %
01.11.2023 08:08 11,3 C 11,1 C 7,8 C 99 % 1003,0 hPa 0,0 l/m 0 min 0 min 21 W/m 6,4 km/h (2 Bft) 96,70 %
01.11.2023 08:09 11,3 C 11,1 C 7,8 C 99 % 1003,0 hPa 0,0 l/m 0 min 0 min 24 W/m 0,0 km/h (0 Bft) 95,83 %
01.11.2023 08:12 11,3 C 11,1 C 7,8 C 99 % 1003,0 hPa 0,0 l/m 0 min 0 min 26 W/m 3,2 km/h (1 Bft) 97,14 %
01.11.2023 08:14 11,3 C 11,1 C 7,8 C 99 % 1003,0 hPa 0,0 l/m 0 min 0 min 27 W/m 3,2 km/h (1 Bft) 97,92 %
01.11.2023 08:16 11,3 C 11,1 C 7,8 C 99 % 1003,0 hPa 0,0 l/m 0 min 0 min 28 W/m 3,2 km/h (1 Bft) 95,74 %
01.11.2023 08:18 11,4 C 11,1 C 7,8 C 99 % 1003,0 hPa 0,0 l/m 0 min 0 min 30 W/m 3,2 km/h (1 Bft) 95,65 %
01.11.2023 08:20 11,4 C 11,1 C 7,8 C 99 % 1002,9 hPa 0,0 l/m 0 min 0 min 31 W/m 6,4 km/h (2 Bft) 97,22 %
01.11.2023 08:22 11,4 C 11,1 C 7,8 C 99 % 1002,9 hPa 0,0 l/m 0 min 0 min 32 W/m 3,2 km/h (1 Bft) 94,44 %
01.11.2023 08:26 11,4 C 11,1 C 7,8 C 99 % 1002,9 hPa 0,0 l/m 0 min 0 min 34 W/m 6,4 km/h (2 Bft) 96,84 %
01.11.2023 08:28 11,4 C 11,1 C 7,8 C 99 % 1002,9 hPa 0,0 l/m 0 min 0 min 35 W/m 6,4 km/h (2 Bft) 93,62 %
01.11.2023 08:30 11,4 C 11,1 C 7,8 C 99 % 1002,8 hPa 0,0 l/m 0 min 0 min 35 W/m 6,4 km/h (2 Bft) 100,00 %
01.11.2023 08:32 11,4 C 11,1 C 7,8 C 99 % 1002,8 hPa 0,0 l/m 0 min 0 min 33 W/m 3,2 km/h (1 Bft) 100,00 %
01.11.2023 08:34 11,4 C 11,1 C 7,8 C 99 % 1002,8 hPa 0,0 l/m 0 min 0 min 33 W/m 6,4 km/h (2 Bft) 97,87 %
01.11.2023 08:36 11,4 C 11,1 C 8,3 C 99 % 1002,8 hPa 0,0 l/m 0 min 0 min 33 W/m 6,4 km/h (2 Bft) 97,87 %
01.11.2023 08:38 11,4 C 11,1 C 8,3 C 99 % 1002,8 hPa 0,0 l/m 0 min 0 min 32 W/m 3,2 km/h (1 Bft) 100,00 %
01.11.2023 08:40 11,5 C 11,1 C 8,3 C 99 % 1002,9 hPa 0,0 l/m 0 min 0 min 33 W/m 6,4 km/h (2 Bft) 100,00 %
01.11.2023 08:42 11,5 C 11,1 C 8,3 C 99 % 1002,8 hPa 0,0 l/m 0 min 0 min 35 W/m 6,4 km/h (2 Bft) 100,00 %
01.11.2023 08:44 11,5 C 11,1 C 8,3 C 99 % 1002,9 hPa 0,0 l/m 0 min 0 min 35 W/m 6,4 km/h (2 Bft) 95,65 %
01.11.2023 08:46 11,6 C 11,1 C 8,3 C 99 % 1002,9 hPa 0,0 l/m 0 min 0 min 37 W/m 3,2 km/h (1 Bft) 100,00 %
01.11.2023 08:48 11,6 C 11,1 C 8,3 C 99 % 1002,9 hPa 0,0 l/m 0 min 0 min 40 W/m 6,4 km/h (2 Bft) 97,87 %
01.11.2023 08:50 11,6 C 11,7 C 8,3 C 99 % 1002,8 hPa 0,0 l/m 0 min 0 min 45 W/m 6,4 km/h (2 Bft) 97,87 %
01.11.2023 08:52 11,6 C 11,7 C 8,3 C 99 % 1002,8 hPa 0,0 l/m 0 min 0 min 49 W/m 12,9 km/h (3 Bft) 97,87 %
01.11.2023 08:54 11,6 C 11,7 C 8,3 C 99 % 1002,8 hPa 0,0 l/m 0 min 0 min 54 W/m 3,2 km/h (1 Bft) 95,92 %
01.11.2023 08:56 11,6 C 11,7 C 8,3 C 99 % 1002,8 hPa 0,0 l/m 0 min 0 min 59 W/m 6,4 km/h (2 Bft) 97,87 %
01.11.2023 08:58 11,6 C 11,7 C 8,3 C 99 % 1002,7 hPa 0,0 l/m 0 min 0 min 63 W/m 3,2 km/h (1 Bft) 97,87 %
01.11.2023 09:00 11,6 C 11,7 C 8,3 C 99 % 1002,8 hPa 0,0 l/m 0 min 0 min 66 W/m 6,4 km/h (2 Bft) 97,87 %
01.11.2023 09:02 11,7 C 11,7 C 8,3 C 99 % 1002,8 hPa 0,0 l/m 0 min 0 min 68 W/m 6,4 km/h (2 Bft) 97,87 %
01.11.2023 09:04 11,7 C 11,7 C 8,3 C 99 % 1002,8 hPa 0,0 l/m 0 min 0 min 71 W/m 6,4 km/h (2 Bft) 97,67 %
01.11.2023 09:06 11,7 C 11,7 C 8,3 C 99 % 1002,8 hPa 0,0 l/m 0 min 0 min 74 W/m 3,2 km/h (1 Bft) 97,87 %
01.11.2023 09:08 11,7 C 11,7 C 8,3 C 99 % 1002,8 hPa 0,0 l/m 0 min 0 min 76 W/m 3,2 km/h (1 Bft) 97,87 %
01.11.2023 09:10 11,7 C 11,7 C 8,3 C 99 % 1002,8 hPa 0,0 l/m 0 min 0 min 77 W/m 12,9 km/h (3 Bft) 95,74 %
01.11.2023 09:12 11,8 C 11,7 C 8,3 C 99 % 1002,8 hPa 0,0 l/m 0 min 0 min 77 W/m 6,4 km/h (2 Bft) 97,87 %
01.11.2023 09:14 11,8 C 11,7 C 8,3 C 99 % 1002,8 hPa 0,0 l/m 0 min 0 min 79 W/m 6,4 km/h (2 Bft) 95,74 %
01.11.2023 09:16 11,8 C 11,7 C 8,3 C 99 % 1002,8 hPa 0,0 l/m 0 min 0 min 83 W/m 6,4 km/h (2 Bft) 97,87 %
01.11.2023 09:18 11,8 C 12,2 C 8,3 C 99 % 1002,8 hPa 0,0 l/m 0 min 0 min 84 W/m 9,7 km/h (2 Bft) 94,29 %
01.11.2023 09:20 11,9 C 12,2 C 8,3 C 99 % 1002,8 hPa 0,0 l/m 0 min 0 min 84 W/m 3,2 km/h (1 Bft) 94,44 %
01.11.2023 09:22 11,9 C 12,2 C 8,3 C 99 % 1002,7 hPa 0,0 l/m 0 min 0 min 85 W/m 12,9 km/h (3 Bft) 95,74 %
01.11.2023 09:24 11,9 C 12,2 C 8,3 C 99 % 1002,8 hPa 0,0 l/m 0 min 0 min 87 W/m 6,4 km/h (2 Bft) 94,00 %
01.11.2023 09:26 11,9 C 12,2 C 8,3 C 99 % 1002,8 hPa 0,0 l/m 0 min 0 min 89 W/m 9,7 km/h (2 Bft) 95,83 %
01.11.2023 09:28 11,9 C 12,2 C 8,3 C 99 % 1002,7 hPa 0,0 l/m 0 min 0 min 92 W/m 3,2 km/h (1 Bft) 97,14 %
01.11.2023 09:30 12,0 C 12,2 C 8,3 C 99 % 1002,7 hPa 0,0 l/m 0 min 0 min 96 W/m 6,4 km/h (2 Bft) 95,74 %
01.11.2023 09:32 12,0 C 12,2 C 8,3 C 99 % 1002,7 hPa 0,0 l/m 0 min 0 min 99 W/m 6,4 km/h (2 Bft) 95,74 %
01.11.2023 09:34 12,0 C 12,2 C 8,9 C 99 % 1002,7 hPa 0,0 l/m 0 min 0 min 103 W/m 3,2 km/h (1 Bft) 93,62 %
01.11.2023 09:36 12,1 C 12,2 C 8,9 C 99 % 1002,7 hPa 0,0 l/m 0 min 0 min 105 W/m 6,4 km/h (2 Bft) 95,74 %
01.11.2023 09:38 12,1 C 12,2 C 8,9 C 99 % 1002,6 hPa 0,0 l/m 0 min 0 min 104 W/m 6,4 km/h (2 Bft) 97,87 %
01.11.2023 09:40 12,1 C 12,2 C 8,9 C 99 % 1002,7 hPa 0,0 l/m 0 min 0 min 103 W/m 6,4 km/h (2 Bft) 97,87 %
01.11.2023 09:42 12,1 C 12,2 C 8,9 C 99 % 1002,6 hPa 0,0 l/m 0 min 0 min 98 W/m 3,2 km/h (1 Bft) 97,87 %
01.11.2023 09:44 12,1 C 12,2 C 8,9 C 99 % 1002,7 hPa 0,0 l/m 0 min 0 min 94 W/m 12,9 km/h (3 Bft) 97,87 %
01.11.2023 09:46 12,1 C 12,2 C 8,9 C 99 % 1002,6 hPa 0,0 l/m 0 min 0 min 90 W/m 3,2 km/h (1 Bft) 97,87 %
01.11.2023 09:48 12,1 C 12,2 C 8,9 C 99 % 1002,6 hPa 0,0 l/m 0 min 0 min 91 W/m 6,4 km/h (2 Bft) 97,83 %
01.11.2023 09:50 12,2 C 12,2 C 8,9 C 99 % 1002,6 hPa 0,0 l/m 0 min 0 min 96 W/m 6,4 km/h (2 Bft) 100,00 %
01.11.2023 09:52 12,2 C 12,2 C 8,9 C 99 % 1002,6 hPa 0,0 l/m 0 min 0 min 100 W/m 3,2 km/h (1 Bft) 100,00 %
01.11.2023 09:54 12,2 C 12,2 C 8,9 C 99 % 1002,6 hPa 0,0 l/m 0 min 0 min 102 W/m 3,2 km/h (1 Bft) 100,00 %
01.11.2023 09:56 12,2 C 12,2 C 8,9 C 99 % 1002,6 hPa 0,0 l/m 0 min 0 min 102 W/m 3,2 km/h (1 Bft) 100,00 %
01.11.2023 09:58 12,2 C 12,2 C 8,9 C 99 % 1002,6 hPa 0,0 l/m 0 min 0 min 101 W/m 12,9 km/h (3 Bft) 97,87 %
01.11.2023 10:00 12,3 C 12,2 C 8,9 C 99 % 1002,6 hPa 0,0 l/m 0 min 0 min 100 W/m 6,4 km/h (2 Bft) 100,00 %
01.11.2023 10:02 12,3 C 12,2 C 8,9 C 99 % 1002,6 hPa 0,0 l/m 0 min 0 min 97 W/m 12,9 km/h (3 Bft) 100,00 %
01.11.2023 10:04 12,3 C 12,2 C 8,9 C 99 % 1002,6 hPa 0,0 l/m 0 min 0 min 96 W/m 6,4 km/h (2 Bft) 100,00 %
01.11.2023 10:10 12,4 C 12,2 C 8,9 C 98 % 1002,5 hPa 0,0 l/m 0 min 0 min 92 W/m 12,9 km/h (3 Bft) 99,30 %
01.11.2023 10:12 12,4 C 12,2 C 8,9 C 98 % 1002,6 hPa 0,0 l/m 0 min 0 min 95 W/m 6,4 km/h (2 Bft) 100,00 %
01.11.2023 10:14 12,4 C 12,2 C 8,9 C 98 % 1002,6 hPa 0,0 l/m 0 min 0 min 98 W/m 12,9 km/h (3 Bft) 97,87 %
01.11.2023 10:16 12,4 C 12,2 C 8,9 C 98 % 1002,7 hPa 0,0 l/m 0 min 0 min 98 W/m 3,2 km/h (1 Bft) 97,87 %
01.11.2023 10:18 12,4 C 12,8 C 8,9 C 98 % 1002,6 hPa 0,0 l/m 0 min 0 min 98 W/m 6,4 km/h (2 Bft) 100,00 %
01.11.2023 10:20 12,5 C 12,8 C 8,9 C 98 % 1002,7 hPa 0,0 l/m 0 min 0 min 96 W/m 6,4 km/h (2 Bft) 100,00 %
01.11.2023 10:22 12,5 C 12,8 C 8,9 C 98 % 1002,7 hPa 0,0 l/m 0 min 0 min 95 W/m 3,2 km/h (1 Bft) 100,00 %
01.11.2023 10:24 12,6 C 12,8 C 8,9 C 98 % 1002,6 hPa 0,0 l/m 0 min 0 min 93 W/m 6,4 km/h (2 Bft) 100,00 %
01.11.2023 10:26 12,6 C 12,8 C 8,9 C 98 % 1002,6 hPa 0,0 l/m 0 min 0 min 93 W/m 12,9 km/h (3 Bft) 95,74 %
01.11.2023 10:28 12,6 C 12,8 C 8,9 C 98 % 1002,6 hPa 0,0 l/m 0 min 0 min 95 W/m 16,1 km/h (3 Bft) 100,00 %
01.11.2023 10:30 12,6 C 12,8 C 8,9 C 98 % 1002,6 hPa 0,0 l/m 0 min 0 min 94 W/m 6,4 km/h (2 Bft) 100,00 %
01.11.2023 10:32 12,6 C 12,8 C 8,9 C 98 % 1002,7 hPa 0,0 l/m 0 min 0 min 89 W/m 6,4 km/h (2 Bft) 97,87 %
01.11.2023 10:34 12,6 C 12,8 C 8,9 C 98 % 1002,7 hPa 0,0 l/m 0 min 0 min 84 W/m 6,4 km/h (2 Bft) 97,87 %
01.11.2023 10:36 12,6 C 12,8 C 8,9 C 98 % 1002,6 hPa 0,0 l/m 0 min 0 min 84 W/m 12,9 km/h (3 Bft) 97,87 %
01.11.2023 10:38 12,6 C 12,8 C 8,9 C 98 % 1002,6 hPa 0,0 l/m 0 min 0 min 84 W/m 6,4 km/h (2 Bft) 97,87 %
01.11.2023 10:40 12,6 C 12,8 C 8,9 C 98 % 1002,6 hPa 0,0 l/m 0 min 0 min 82 W/m 12,9 km/h (3 Bft) 97,87 %
01.11.2023 10:42 12,6 C 12,8 C 8,9 C 98 % 1002,6 hPa 0,0 l/m 0 min 0 min 76 W/m 12,9 km/h (3 Bft) 97,83 %
01.11.2023 10:44 12,7 C 12,8 C 8,9 C 97 % 1002,6 hPa 0,0 l/m 0 min 0 min 75 W/m 19,3 km/h (3 Bft) 97,87 %
01.11.2023 10:46 12,7 C 12,8 C 8,9 C 97 % 1002,6 hPa 0,0 l/m 0 min 0 min 81 W/m 12,9 km/h (3 Bft) 95,74 %
01.11.2023 10:48 12,7 C 12,8 C 8,9 C 97 % 1002,5 hPa 0,0 l/m 0 min 0 min 90 W/m 6,4 km/h (2 Bft) 97,87 %
01.11.2023 10:50 12,7 C 12,8 C 8,9 C 97 % 1002,5 hPa 0,0 l/m 0 min 0 min 98 W/m 12,9 km/h (3 Bft) 97,87 %
01.11.2023 10:52 12,8 C 12,8 C 8,9 C 97 % 1002,5 hPa 0,0 l/m 0 min 0 min 111 W/m 6,4 km/h (2 Bft) 97,87 %
01.11.2023 10:54 12,8 C 13,3 C 8,9 C 97 % 1002,6 hPa 0,0 l/m 0 min 0 min 126 W/m 6,4 km/h (2 Bft) 97,14 %
01.11.2023 10:56 12,8 C 13,3 C 8,9 C 96 % 1002,5 hPa 0,0 l/m 0 min 0 min 134 W/m 6,4 km/h (2 Bft) 97,87 %
01.11.2023 10:58 12,8 C 13,3 C 8,9 C 96 % 1002,5 hPa 0,0 l/m 0 min 0 min 134 W/m 3,2 km/h (1 Bft) 97,87 %
01.11.2023 11:00 12,9 C 13,3 C 8,9 C 96 % 1002,5 hPa 0,0 l/m 0 min 0 min 132 W/m 12,9 km/h (3 Bft) 97,87 %
01.11.2023 11:02 12,9 C 13,3 C 8,9 C 96 % 1002,5 hPa 0,0 l/m 0 min 0 min 130 W/m 3,2 km/h (1 Bft) 93,62 %
01.11.2023 11:04 13,0 C 13,3 C 8,9 C 96 % 1002,5 hPa 0,0 l/m 0 min 0 min 129 W/m 12,9 km/h (3 Bft) 98,08 %
01.11.2023 11:10 13,1 C 13,3 C 8,9 C 96 % 1002,4 hPa 0,0 l/m 0 min 0 min 113 W/m 12,9 km/h (3 Bft) 96,50 %
01.11.2023 11:12 13,2 C 13,3 C 8,9 C 96 % 1002,3 hPa 0,0 l/m 0 min 0 min 105 W/m 6,4 km/h (2 Bft) 95,74 %
01.11.2023 11:14 13,2 C 13,3 C 8,9 C 95 % 1002,3 hPa 0,0 l/m 0 min 0 min 119 W/m 6,4 km/h (2 Bft) 95,74 %
01.11.2023 11:16 13,3 C 13,9 C 8,9 C 95 % 1002,3 hPa 0,0 l/m 0 min 0 min 146 W/m 9,7 km/h (2 Bft) 95,74 %
01.11.2023 11:18 13,3 C 13,9 C 9,4 C 95 % 1002,2 hPa 0,0 l/m 0 min 0 min 162 W/m 9,7 km/h (2 Bft) 93,48 %
01.11.2023 11:20 13,4 C 14,4 C 9,4 C 95 % 1002,2 hPa 0,0 l/m 0 min 0 min 171 W/m 9,7 km/h (2 Bft) 93,62 %
01.11.2023 11:22 13,5 C 14,4 C 9,4 C 95 % 1002,2 hPa 0,0 l/m 0 min 0 min 176 W/m 12,9 km/h (3 Bft) 93,62 %
01.11.2023 11:24 13,6 C 14,4 C 9,4 C 95 % 1002,2 hPa 0,0 l/m 0 min 0 min 160 W/m 12,9 km/h (3 Bft) 95,74 %
01.11.2023 11:26 13,6 C 14,4 C 9,4 C 94 % 1002,1 hPa 0,0 l/m 0 min 0 min 124 W/m 12,9 km/h (3 Bft) 95,74 %
01.11.2023 11:28 13,7 C 13,9 C 9,4 C 94 % 1002,2 hPa 0,0 l/m 0 min 0 min 100 W/m 6,4 km/h (2 Bft) 93,62 %
01.11.2023 11:30 13,7 C 13,9 C 9,4 C 94 % 1002,1 hPa 0,0 l/m 0 min 0 min 101 W/m 9,7 km/h (2 Bft) 95,74 %
01.11.2023 11:32 13,8 C 13,9 C 9,4 C 94 % 1002,1 hPa 0,0 l/m 0 min 0 min 113 W/m 16,1 km/h (3 Bft) 93,62 %
01.11.2023 11:34 13,8 C 13,9 C 9,4 C 93 % 1002,0 hPa 0,0 l/m 0 min 0 min 128 W/m 9,7 km/h (2 Bft) 91,49 %
01.11.2023 11:36 13,8 C 13,9 C 9,4 C 93 % 1002,0 hPa 0,0 l/m 0 min 0 min 139 W/m 12,9 km/h (3 Bft) 95,65 %
01.11.2023 11:38 13,8 C 13,9 C 9,4 C 92 % 1002,1 hPa 0,0 l/m 0 min 0 min 150 W/m 16,1 km/h (3 Bft) 95,74 %
01.11.2023 11:40 13,8 C 13,9 C 9,4 C 92 % 1002,0 hPa 0,0 l/m 0 min 0 min 161 W/m 6,4 km/h (2 Bft) 95,74 %
01.11.2023 11:42 13,8 C 13,9 C 9,4 C 92 % 1002,0 hPa 0,0 l/m 0 min 0 min 166 W/m 12,9 km/h (3 Bft) 91,49 %
01.11.2023 11:44 13,9 C 13,9 C 9,4 C 92 % 1001,9 hPa 0,0 l/m 0 min 0 min 167 W/m 9,7 km/h (2 Bft) 95,74 %
01.11.2023 11:46 13,9 C 13,9 C 9,4 C 91 % 1002,0 hPa 0,0 l/m 0 min 0 min 161 W/m 12,9 km/h (3 Bft) 97,87 %
01.11.2023 11:48 14,0 C 13,9 C 9,4 C 91 % 1001,9 hPa 0,0 l/m 0 min 0 min 155 W/m 16,1 km/h (3 Bft) 97,87 %
01.11.2023 11:50 14,0 C 14,4 C 9,4 C 91 % 1001,8 hPa 0,0 l/m 0 min 0 min 152 W/m 12,9 km/h (3 Bft) 97,87 %
01.11.2023 11:52 14,1 C 14,4 C 9,4 C 91 % 1001,8 hPa 0,0 l/m 0 min 0 min 153 W/m 6,4 km/h (2 Bft) 97,87 %
01.11.2023 11:54 14,1 C 14,4 C 9,4 C 91 % 1001,8 hPa 0,0 l/m 0 min 0 min 149 W/m 12,9 km/h (3 Bft) 97,87 %
01.11.2023 11:56 14,1 C 14,4 C 9,4 C 90 % 1001,7 hPa 0,0 l/m 0 min 0 min 139 W/m 12,9 km/h (3 Bft) 95,65 %
01.11.2023 11:58 14,2 C 14,4 C 8,9 C 90 % 1001,7 hPa 0,0 l/m 0 min 0 min 135 W/m 16,1 km/h (3 Bft) 95,74 %
01.11.2023 12:00 14,2 C 14,4 C 8,9 C 89 % 1001,6 hPa 0,0 l/m 0 min 0 min 136 W/m 16,1 km/h (3 Bft) 97,92 %
01.11.2023 12:02 14,3 C 14,4 C 9,4 C 89 % 1001,6 hPa 0,0 l/m 0 min 0 min 139 W/m 12,9 km/h (3 Bft) 97,87 %
01.11.2023 12:04 14,3 C 14,4 C 9,4 C 89 % 1001,5 hPa 0,0 l/m 0 min 0 min 141 W/m 19,3 km/h (3 Bft) 97,83 %
01.11.2023 12:08 14,3 C 14,4 C 9,4 C 88 % 1001,5 hPa 0,0 l/m 0 min 0 min 148 W/m 12,9 km/h (3 Bft) 96,74 %
01.11.2023 12:10 14,3 C 14,4 C 9,4 C 88 % 1001,5 hPa 0,0 l/m 0 min 0 min 152 W/m 16,1 km/h (3 Bft) 97,87 %
01.11.2023 12:12 14,3 C 14,4 C 8,9 C 88 % 1001,4 hPa 0,0 l/m 0 min 0 min 151 W/m 16,1 km/h (3 Bft) 95,74 %
01.11.2023 12:16 14,3 C 14,4 C 8,9 C 87 % 1001,3 hPa 0,0 l/m 0 min 0 min 143 W/m 22,5 km/h (4 Bft) 96,81 %
01.11.2023 12:18 14,3 C 14,4 C 8,9 C 87 % 1001,4 hPa 0,0 l/m 0 min 0 min 130 W/m 16,1 km/h (3 Bft) 100,00 %
01.11.2023 12:20 14,3 C 14,4 C 8,9 C 87 % 1001,3 hPa 0,0 l/m 0 min 0 min 124 W/m 12,9 km/h (3 Bft) 100,00 %
01.11.2023 12:22 14,3 C 14,4 C 8,9 C 87 % 1001,3 hPa 0,0 l/m 0 min 0 min 123 W/m 12,9 km/h (3 Bft) 100,00 %
01.11.2023 12:24 14,3 C 14,4 C 8,9 C 87 % 1001,2 hPa 0,0 l/m 0 min 0 min 125 W/m 12,9 km/h (3 Bft) 97,87 %
01.11.2023 12:26 14,3 C 14,4 C 8,9 C 87 % 1001,2 hPa 0,0 l/m 0 min 0 min 130 W/m 12,9 km/h (3 Bft) 100,00 %
01.11.2023 12:28 14,3 C 14,4 C 8,9 C 87 % 1001,2 hPa 0,0 l/m 0 min 0 min 138 W/m 19,3 km/h (3 Bft) 97,87 %
01.11.2023 12:30 14,3 C 14,4 C 8,9 C 86 % 1001,2 hPa 0,0 l/m 0 min 0 min 151 W/m 16,1 km/h (3 Bft) 100,00 %
01.11.2023 12:32 14,3 C 14,4 C 8,9 C 86 % 1001,2 hPa 0,0 l/m 0 min 0 min 171 W/m 19,3 km/h (3 Bft) 100,00 %
01.11.2023 12:34 14,4 C 14,4 C 8,9 C 86 % 1001,0 hPa 0,0 l/m 0 min 0 min 183 W/m 6,4 km/h (2 Bft) 100,00 %
01.11.2023 12:36 14,4 C 14,4 C 8,9 C 86 % 1001,0 hPa 0,0 l/m 0 min 0 min 186 W/m 16,1 km/h (3 Bft) 100,00 %
01.11.2023 12:38 14,5 C 14,4 C 8,9 C 86 % 1001,0 hPa 0,0 l/m 0 min 0 min 184 W/m 12,9 km/h (3 Bft) 100,00 %
01.11.2023 12:40 14,5 C 14,4 C 8,9 C 86 % 1001,0 hPa 0,0 l/m 0 min 0 min 177 W/m 22,5 km/h (4 Bft) 93,62 %
01.11.2023 12:42 14,6 C 14,4 C 8,9 C 86 % 1001,0 hPa 0,0 l/m 0 min 0 min 168 W/m 19,3 km/h (3 Bft) 97,87 %
01.11.2023 12:44 14,6 C 14,4 C 8,9 C 85 % 1000,9 hPa 0,0 l/m 0 min 0 min 140 W/m 12,9 km/h (3 Bft) 100,00 %
01.11.2023 12:46 14,6 C 14,4 C 8,9 C 85 % 1000,9 hPa 0,0 l/m 0 min 0 min 121 W/m 6,4 km/h (2 Bft) 100,00 %
01.11.2023 12:48 14,6 C 14,4 C 8,9 C 85 % 1000,9 hPa 0,0 l/m 0 min 0 min 122 W/m 19,3 km/h (3 Bft) 100,00 %
01.11.2023 12:50 14,6 C 14,4 C 8,9 C 85 % 1000,8 hPa 0,0 l/m 0 min 0 min 142 W/m 19,3 km/h (3 Bft) 97,87 %
01.11.2023 12:52 14,6 C 14,4 C 8,9 C 85 % 1000,8 hPa 0,0 l/m 0 min 0 min 167 W/m 16,1 km/h (3 Bft) 100,00 %
01.11.2023 12:54 14,6 C 14,4 C 8,9 C 85 % 1000,8 hPa 0,0 l/m 0 min 0 min 188 W/m 16,1 km/h (3 Bft) 100,00 %
01.11.2023 12:56 14,7 C 14,4 C 8,9 C 85 % 1000,8 hPa 0,0 l/m 0 min 0 min 195 W/m 22,5 km/h (4 Bft) 100,00 %
01.11.2023 12:58 14,7 C 14,4 C 8,9 C 85 % 1000,7 hPa 0,0 l/m 0 min 0 min 181 W/m 16,1 km/h (3 Bft) 100,00 %
01.11.2023 13:00 14,7 C 14,4 C 8,9 C 85 % 1000,7 hPa 0,0 l/m 0 min 0 min 161 W/m 16,1 km/h (3 Bft) 100,00 %
01.11.2023 13:02 14,7 C 14,4 C 8,9 C 84 % 1000,7 hPa 0,0 l/m 0 min 0 min 148 W/m 6,4 km/h (2 Bft) 100,00 %
01.11.2023 13:04 14,7 C 14,4 C 8,9 C 84 % 1000,7 hPa 0,0 l/m 0 min 0 min 151 W/m 12,9 km/h (3 Bft) 97,78 %
01.11.2023 13:08 14,8 C 14,4 C 8,9 C 84 % 1000,5 hPa 0,0 l/m 0 min 0 min 145 W/m 16,1 km/h (3 Bft) 97,03 %
01.11.2023 13:09 14,8 C 14,4 C 8,9 C 84 % 1000,6 hPa 0,0 l/m 0 min 0 min 129 W/m 19,3 km/h (3 Bft) 100,00 %
01.11.2023 13:12 14,7 C 14,4 C 8,9 C 84 % 1000,5 hPa 0,0 l/m 0 min 0 min 113 W/m 29,0 km/h (5 Bft) 100,00 %
01.11.2023 13:14 14,7 C 14,4 C 8,9 C 84 % 1000,6 hPa 0,0 l/m 0 min 0 min 106 W/m 16,1 km/h (3 Bft) 97,87 %
01.11.2023 13:16 14,7 C 14,4 C 8,9 C 84 % 1000,5 hPa 0,0 l/m 0 min 0 min 107 W/m 12,9 km/h (3 Bft) 54,55 %
01.11.2023 13:18 14,7 C 14,4 C 8,9 C 84 % 1000,4 hPa 0,0 l/m 0 min 0 min 120 W/m 6,4 km/h (2 Bft) 97,87 %
01.11.2023 13:20 14,7 C 14,4 C 8,9 C 84 % 1000,4 hPa 0,0 l/m 0 min 0 min 125 W/m 19,3 km/h (3 Bft) 97,87 %
01.11.2023 13:22 14,7 C 14,4 C 8,9 C 84 % 1000,5 hPa 0,0 l/m 0 min 0 min 120 W/m 19,3 km/h (3 Bft) 95,74 %
01.11.2023 13:24 14,7 C 14,4 C 8,9 C 84 % 1000,4 hPa 0,0 l/m 0 min 0 min 111 W/m 9,7 km/h (2 Bft) 93,62 %
01.11.2023 13:26 14,7 C 14,4 C 8,9 C 84 % 1000,4 hPa 0,0 l/m 0 min 0 min 113 W/m 16,1 km/h (3 Bft) 93,62 %
01.11.2023 13:28 14,7 C 14,4 C 8,9 C 84 % 1000,3 hPa 0,0 l/m 0 min 0 min 134 W/m 12,9 km/h (3 Bft) 95,74 %
01.11.2023 13:30 14,7 C 14,4 C 8,9 C 84 % 1000,3 hPa 0,0 l/m 0 min 0 min 144 W/m 16,1 km/h (3 Bft) 95,74 %
01.11.2023 13:32 14,7 C 14,4 C 9,4 C 84 % 1000,2 hPa 0,0 l/m 0 min 0 min 161 W/m 16,1 km/h (3 Bft) 97,87 %
01.11.2023 13:34 14,7 C 14,4 C 10,0 C 84 % 1000,2 hPa 0,0 l/m 0 min 0 min 174 W/m 12,9 km/h (3 Bft) 95,65 %
01.11.2023 13:36 14,7 C 14,4 C 10,0 C 84 % 1000,2 hPa 0,0 l/m 0 min 0 min 172 W/m 22,5 km/h (4 Bft) 95,74 %
01.11.2023 13:38 14,7 C 14,4 C 10,6 C 84 % 1000,1 hPa 0,0 l/m 0 min 0 min 157 W/m 19,3 km/h (3 Bft) 95,74 %
01.11.2023 13:40 14,7 C 14,4 C 10,6 C 84 % 1000,1 hPa 0,0 l/m 0 min 0 min 136 W/m 16,1 km/h (3 Bft) 95,74 %
01.11.2023 13:42 14,7 C 14,4 C 10,6 C 84 % 1000,0 hPa 0,0 l/m 0 min 0 min 119 W/m 9,7 km/h (2 Bft) 93,62 %
01.11.2023 13:44 14,7 C 14,4 C 10,6 C 84 % 999,9 hPa 0,0 l/m 0 min 0 min 114 W/m 16,1 km/h (3 Bft) 95,74 %
01.11.2023 13:46 14,7 C 14,4 C 10,6 C 84 % 999,9 hPa 0,0 l/m 0 min 0 min 119 W/m 25,7 km/h (4 Bft) 95,74 %
01.11.2023 13:48 14,7 C 14,4 C 10,6 C 84 % 999,9 hPa 0,0 l/m 0 min 0 min 129 W/m 12,9 km/h (3 Bft) 95,74 %
01.11.2023 13:50 14,7 C 14,4 C 10,6 C 84 % 999,8 hPa 0,0 l/m 0 min 0 min 128 W/m 16,1 km/h (3 Bft) 95,74 %
01.11.2023 13:52 14,7 C 14,4 C 10,6 C 84 % 999,8 hPa 0,0 l/m 0 min 0 min 129 W/m 12,9 km/h (3 Bft) 97,87 %
01.11.2023 13:54 14,7 C 14,4 C 10,6 C 84 % 999,8 hPa 0,0 l/m 0 min 0 min 124 W/m 12,9 km/h (3 Bft) 97,92 %
01.11.2023 13:56 14,7 C 14,4 C 10,6 C 84 % 999,8 hPa 0,0 l/m 0 min 0 min 130 W/m 19,3 km/h (3 Bft) 95,74 %
01.11.2023 13:58 14,7 C 14,4 C 10,6 C 84 % 999,7 hPa 0,0 l/m 0 min 0 min 132 W/m 6,4 km/h (2 Bft) 95,83 %
01.11.2023 14:00 14,7 C 14,4 C 10,6 C 84 % 999,7 hPa 0,0 l/m 0 min 0 min 119 W/m 12,9 km/h (3 Bft) 95,74 %
01.11.2023 14:02 14,7 C 14,4 C 10,6 C 84 % 999,6 hPa 0,0 l/m 0 min 0 min 111 W/m 16,1 km/h (3 Bft) 97,87 %
01.11.2023 14:04 14,7 C 14,4 C 10,6 C 84 % 999,6 hPa 0,0 l/m 0 min 0 min 105 W/m 19,3 km/h (3 Bft) 93,18 %
01.11.2023 14:10 14,6 C 14,4 C 10,6 C 84 % 999,6 hPa 0,0 l/m 0 min 0 min 119 W/m 16,1 km/h (3 Bft) 98,64 %
01.11.2023 14:12 14,6 C 14,4 C 10,6 C 84 % 999,6 hPa 0,0 l/m 0 min 0 min 119 W/m 25,7 km/h (4 Bft) 100,00 %
01.11.2023 14:14 14,6 C 13,9 C 10,6 C 84 % 999,5 hPa 0,0 l/m 0 min 0 min 116 W/m 16,1 km/h (3 Bft) 97,87 %
01.11.2023 14:16 14,6 C 13,9 C 10,6 C 85 % 999,5 hPa 0,0 l/m 0 min 0 min 111 W/m 12,9 km/h (3 Bft) 95,92 %
01.11.2023 14:18 14,5 C 13,9 C 10,6 C 85 % 999,4 hPa 0,0 l/m 0 min 0 min 103 W/m 19,3 km/h (3 Bft) 100,00 %
01.11.2023 14:20 14,4 C 13,9 C 10,6 C 85 % 999,4 hPa 0,0 l/m 0 min 0 min 97 W/m 16,1 km/h (3 Bft) 97,87 %
01.11.2023 14:22 14,4 C 13,9 C 10,6 C 85 % 999,3 hPa 0,0 l/m 0 min 0 min 93 W/m 19,3 km/h (3 Bft) 97,87 %
01.11.2023 14:24 14,4 C 13,9 C 10,6 C 85 % 999,3 hPa 0,0 l/m 0 min 0 min 93 W/m 19,3 km/h (3 Bft) 97,83 %
01.11.2023 14:26 14,3 C 13,9 C 10,6 C 85 % 999,3 hPa 0,0 l/m 0 min 0 min 92 W/m 16,1 km/h (3 Bft) 97,87 %
01.11.2023 14:28 14,3 C 13,9 C 10,6 C 85 % 999,4 hPa 0,0 l/m 0 min 0 min 89 W/m 16,1 km/h (3 Bft) 97,87 %
01.11.2023 14:30 14,3 C 13,9 C 10,6 C 85 % 999,3 hPa 0,0 l/m 0 min 0 min 85 W/m 16,1 km/h (3 Bft) 97,87 %
01.11.2023 14:32 14,3 C 13,9 C 10,6 C 85 % 999,4 hPa 0,0 l/m 0 min 0 min 83 W/m 16,1 km/h (3 Bft) 97,87 %
01.11.2023 14:34 14,3 C 13,9 C 10,6 C 85 % 999,3 hPa 0,0 l/m 0 min 0 min 82 W/m 22,5 km/h (4 Bft) 97,87 %
01.11.2023 14:36 14,3 C 13,9 C 10,6 C 85 % 999,4 hPa 0,0 l/m 0 min 0 min 84 W/m 16,1 km/h (3 Bft) 97,14 %
01.11.2023 14:38 14,3 C 13,9 C 10,6 C 85 % 999,3 hPa 0,0 l/m 0 min 0 min 86 W/m 19,3 km/h (3 Bft) 98,00 %
01.11.2023 14:40 14,3 C 13,9 C 10,6 C 85 % 999,2 hPa 0,0 l/m 0 min 0 min 87 W/m 16,1 km/h (3 Bft) 97,83 %
01.11.2023 14:42 14,3 C 13,9 C 10,0 C 85 % 999,1 hPa 0,0 l/m 0 min 0 min 85 W/m 16,1 km/h (3 Bft) 95,74 %
01.11.2023 14:44 14,3 C 13,9 C 10,0 C 85 % 999,1 hPa 0,0 l/m 0 min 0 min 83 W/m 19,3 km/h (3 Bft) 97,87 %
01.11.2023 14:46 14,3 C 13,9 C 10,0 C 85 % 999,1 hPa 0,0 l/m 0 min 0 min 77 W/m 16,1 km/h (3 Bft) 97,87 %
01.11.2023 14:48 14,3 C 13,9 C 10,0 C 85 % 999,0 hPa 0,0 l/m 0 min 0 min 71 W/m 16,1 km/h (3 Bft) 97,87 %
01.11.2023 14:50 14,3 C 13,9 C 10,0 C 85 % 998,9 hPa 0,0 l/m 0 min 0 min 67 W/m 16,1 km/h (3 Bft) 97,87 %
01.11.2023 14:52 14,2 C 13,3 C 10,0 C 85 % 998,9 hPa 0,0 l/m 0 min 0 min 63 W/m 19,3 km/h (3 Bft) 97,87 %
01.11.2023 14:54 14,2 C 13,3 C 10,0 C 85 % 998,8 hPa 0,0 l/m 0 min 0 min 62 W/m 16,1 km/h (3 Bft) 96,00 %
01.11.2023 14:56 14,2 C 13,3 C 10,0 C 85 % 998,8 hPa 0,0 l/m 0 min 0 min 58 W/m 16,1 km/h (3 Bft) 97,87 %
01.11.2023 14:58 14,1 C 13,3 C 10,0 C 85 % 998,8 hPa 0,0 l/m 0 min 0 min 57 W/m 16,1 km/h (3 Bft) 97,83 %
01.11.2023 15:00 14,1 C 13,3 C 10,0 C 85 % 998,8 hPa 0,0 l/m 0 min 0 min 57 W/m 19,3 km/h (3 Bft) 97,87 %
01.11.2023 15:02 14,1 C 13,3 C 10,0 C 85 % 998,8 hPa 0,0 l/m 0 min 0 min 60 W/m 22,5 km/h (4 Bft) 97,87 %
01.11.2023 15:04 14,0 C 13,3 C 10,0 C 85 % 998,8 hPa 0,0 l/m 0 min 0 min 62 W/m 16,1 km/h (3 Bft) 95,35 %
01.11.2023 15:06 14,0 C 13,3 C 10,0 C 85 % 998,8 hPa 0,0 l/m 0 min 0 min 59 W/m 19,3 km/h (3 Bft) 98,11 %
01.11.2023 15:08 13,9 C 13,3 C 10,0 C 85 % 998,7 hPa 0,0 l/m 0 min 0 min 58 W/m 16,1 km/h (3 Bft) 95,74 %
01.11.2023 15:10 13,9 C 13,3 C 10,0 C 85 % 998,6 hPa 0,0 l/m 0 min 0 min 57 W/m 25,7 km/h (4 Bft) 100,00 %
01.11.2023 15:12 13,9 C 13,3 C 10,0 C 85 % 998,6 hPa 0,0 l/m 0 min 0 min 52 W/m 25,7 km/h (4 Bft) 100,00 %
01.11.2023 15:14 13,9 C 13,3 C 10,0 C 85 % 998,7 hPa 0,0 l/m 0 min 0 min 47 W/m 16,1 km/h (3 Bft) 97,87 %
01.11.2023 15:16 13,9 C 13,3 C 10,0 C 85 % 998,6 hPa 0,0 l/m 0 min 0 min 45 W/m 22,5 km/h (4 Bft) 100,00 %
01.11.2023 15:18 13,9 C 13,3 C 10,0 C 85 % 998,6 hPa 0,0 l/m 0 min 0 min 43 W/m 22,5 km/h (4 Bft) 97,37 %
01.11.2023 15:20 13,8 C 13,3 C 10,0 C 85 % 998,6 hPa 0,0 l/m 0 min 0 min 42 W/m 16,1 km/h (3 Bft) 97,96 %
01.11.2023 15:22 13,8 C 13,3 C 10,0 C 85 % 998,6 hPa 0,0 l/m 0 min 0 min 42 W/m 16,1 km/h (3 Bft) 97,87 %
01.11.2023 15:24 13,8 C 13,3 C 10,0 C 85 % 998,5 hPa 0,0 l/m 0 min 0 min 39 W/m 16,1 km/h (3 Bft) 97,87 %
01.11.2023 15:26 13,8 C 13,3 C 10,0 C 85 % 998,5 hPa 0,0 l/m 0 min 0 min 36 W/m 16,1 km/h (3 Bft) 93,62 %
01.11.2023 15:28 13,8 C 13,3 C 9,4 C 85 % 998,6 hPa 0,0 l/m 0 min 0 min 33 W/m 19,3 km/h (3 Bft) 97,87 %
01.11.2023 15:30 13,8 C 13,3 C 9,4 C 85 % 998,6 hPa 0,0 l/m 0 min 0 min 33 W/m 16,1 km/h (3 Bft) 97,87 %
01.11.2023 15:32 13,8 C 12,8 C 9,4 C 85 % 998,6 hPa 0,0 l/m 0 min 0 min 32 W/m 19,3 km/h (3 Bft) 95,74 %
01.11.2023 15:34 13,7 C 12,8 C 9,4 C 85 % 998,5 hPa 0,0 l/m 0 min 0 min 32 W/m 22,5 km/h (4 Bft) 95,74 %
01.11.2023 15:36 13,7 C 12,8 C 9,4 C 85 % 998,5 hPa 0,0 l/m 0 min 0 min 32 W/m 12,9 km/h (3 Bft) 95,65 %
01.11.2023 15:38 13,7 C 12,8 C 9,4 C 85 % 998,5 hPa 0,0 l/m 0 min 0 min 33 W/m 22,5 km/h (4 Bft) 97,87 %
01.11.2023 15:40 13,7 C 12,8 C 9,4 C 85 % 998,5 hPa 0,0 l/m 0 min 0 min 35 W/m 19,3 km/h (3 Bft) 97,87 %
01.11.2023 15:42 13,7 C 12,8 C 9,4 C 86 % 998,5 hPa 0,0 l/m 0 min 0 min 29 W/m 19,3 km/h (3 Bft) 97,87 %
01.11.2023 15:44 13,7 C 12,8 C 9,4 C 85 % 998,5 hPa 0,0 l/m 0 min 0 min 25 W/m 22,5 km/h (4 Bft) 97,87 %
01.11.2023 15:46 13,7 C 12,8 C 9,4 C 86 % 998,5 hPa 0,0 l/m 0 min 0 min 23 W/m 19,3 km/h (3 Bft) 97,87 %
01.11.2023 15:48 13,7 C 12,8 C 9,4 C 85 % 998,5 hPa 0,0 l/m 0 min 0 min 21 W/m 22,5 km/h (4 Bft) 97,87 %
01.11.2023 15:50 13,7 C 12,8 C 9,4 C 86 % 998,4 hPa 0,0 l/m 0 min 0 min 15 W/m 19,3 km/h (3 Bft) 97,87 %
01.11.2023 15:52 13,7 C 12,8 C 9,4 C 85 % 998,4 hPa 0,0 l/m 0 min 0 min 14 W/m 16,1 km/h (3 Bft) 100,00 %
01.11.2023 15:54 13,6 C 12,8 C 9,4 C 85 % 998,4 hPa 0,0 l/m 0 min 0 min 17 W/m 29,0 km/h (5 Bft) 100,00 %
01.11.2023 15:56 13,7 C 12,8 C 9,4 C 86 % 998,3 hPa 0,0 l/m 0 min 0 min 17 W/m 16,1 km/h (3 Bft) 100,00 %
01.11.2023 15:58 13,7 C 12,8 C 9,4 C 86 % 998,3 hPa 0,0 l/m 0 min 0 min 16 W/m 12,9 km/h (3 Bft) 100,00 %
01.11.2023 16:00 13,6 C 12,8 C 9,4 C 86 % 998,3 hPa 0,0 l/m 0 min 0 min 13 W/m 16,1 km/h (3 Bft) 100,00 %
01.11.2023 16:02 13,6 C 12,8 C 9,4 C 86 % 998,2 hPa 0,0 l/m 0 min 0 min 14 W/m 25,7 km/h (4 Bft) 97,87 %
01.11.2023 16:04 13,6 C 12,8 C 9,4 C 86 % 998,2 hPa 0,0 l/m 0 min 0 min 14 W/m 32,2 km/h (5 Bft) 97,78 %
01.11.2023 16:06 13,6 C 12,8 C 9,4 C 86 % 998,2 hPa 0,0 l/m 0 min 0 min 13 W/m 22,5 km/h (4 Bft) 97,83 %
01.11.2023 16:08 13,6 C 12,8 C 9,4 C 86 % 998,3 hPa 0,0 l/m 0 min 0 min 12 W/m 25,7 km/h (4 Bft) 97,87 %
01.11.2023 16:10 13,6 C 12,8 C 9,4 C 86 % 998,2 hPa 0,0 l/m 0 min 0 min 10 W/m 16,1 km/h (3 Bft) 97,87 %
01.11.2023 16:12 13,6 C 12,8 C 9,4 C 86 % 998,2 hPa 0,0 l/m 0 min 0 min 10 W/m 12,9 km/h (3 Bft) 97,87 %
01.11.2023 16:14 13,6 C 12,8 C 9,4 C 86 % 998,2 hPa 0,0 l/m 0 min 0 min 8 W/m 19,3 km/h (3 Bft) 95,74 %
01.11.2023 16:16 13,6 C 12,8 C 9,4 C 86 % 998,1 hPa 0,0 l/m 0 min 0 min 7 W/m 19,3 km/h (3 Bft) 95,74 %
01.11.2023 16:18 13,6 C 12,8 C 9,4 C 86 % 998,1 hPa 0,0 l/m 0 min 0 min 6 W/m 12,9 km/h (3 Bft) 95,74 %
01.11.2023 16:20 13,6 C 12,8 C 9,4 C 86 % 998,0 hPa 0,0 l/m 0 min 0 min 7 W/m 25,7 km/h (4 Bft) 95,74 %
01.11.2023 16:22 13,6 C 12,8 C 9,4 C 86 % 998,0 hPa 0,0 l/m 0 min 0 min 6 W/m 25,7 km/h (4 Bft) 97,83 %
01.11.2023 16:24 13,6 C 12,8 C 9,4 C 86 % 998,1 hPa 0,0 l/m 0 min 0 min 7 W/m 22,5 km/h (4 Bft) 97,87 %
01.11.2023 16:26 13,6 C 12,8 C 9,4 C 86 % 998,1 hPa 0,0 l/m 0 min 0 min 13 W/m 12,9 km/h (3 Bft) 98,15 %
01.11.2023 16:28 13,6 C 12,8 C 9,4 C 86 % 998,0 hPa 0,0 l/m 0 min 0 min 17 W/m 19,3 km/h (3 Bft) 97,87 %
01.11.2023 16:30 13,6 C 12,8 C 9,4 C 86 % 997,9 hPa 0,0 l/m 0 min 0 min 16 W/m 16,1 km/h (3 Bft) 95,74 %
01.11.2023 16:32 13,6 C 12,8 C 9,4 C 86 % 997,9 hPa 0,0 l/m 0 min 0 min 11 W/m 22,5 km/h (4 Bft) 95,65 %
01.11.2023 16:34 13,6 C 12,8 C 9,4 C 86 % 997,9 hPa 0,0 l/m 0 min 0 min 7 W/m 19,3 km/h (3 Bft) 97,87 %
01.11.2023 16:36 13,5 C 12,8 C 9,4 C 86 % 997,9 hPa 0,0 l/m 0 min 0 min 9 W/m 19,3 km/h (3 Bft) 95,74 %
01.11.2023 16:38 13,5 C 12,8 C 9,4 C 86 % 997,9 hPa 0,0 l/m 0 min 0 min 15 W/m 16,1 km/h (3 Bft) 85,11 %
01.11.2023 16:40 13,5 C 12,8 C 9,4 C 86 % 997,8 hPa 0,0 l/m 0 min 0 min 15 W/m 19,3 km/h (3 Bft) 50,00 %
01.11.2023 16:42 13,5 C 12,8 C 9,4 C 86 % 997,8 hPa 0,0 l/m 0 min 0 min 11 W/m 16,1 km/h (3 Bft) 97,87 %
01.11.2023 16:44 13,5 C 12,8 C 9,4 C 86 % 997,8 hPa 0,0 l/m 0 min 0 min 11 W/m 16,1 km/h (3 Bft) 97,87 %
01.11.2023 16:46 13,4 C 12,8 C 9,4 C 86 % 997,8 hPa 0,0 l/m 0 min 0 min 9 W/m 29,0 km/h (5 Bft) 95,74 %
01.11.2023 16:48 13,4 C 12,8 C 9,4 C 86 % 997,7 hPa 0,0 l/m 0 min 0 min 9 W/m 16,1 km/h (3 Bft) 97,87 %
01.11.2023 16:50 13,4 C 12,8 C 9,4 C 86 % 997,7 hPa 0,0 l/m 0 min 0 min 7 W/m 16,1 km/h (3 Bft) 97,83 %
01.11.2023 16:52 13,4 C 12,8 C 9,4 C 87 % 997,7 hPa 0,0 l/m 0 min 0 min 5 W/m 19,3 km/h (3 Bft) 97,87 %
01.11.2023 16:54 13,4 C 12,8 C 9,4 C 87 % 997,7 hPa 0,0 l/m 0 min 0 min 1 W/m 19,3 km/h (3 Bft) 97,22 %
01.11.2023 16:56 13,4 C 12,8 C 8,9 C 87 % 997,7 hPa 0,0 l/m 0 min 2 min 0 W/m 19,3 km/h (3 Bft) 98,00 %
01.11.2023 16:58 13,4 C 12,8 C 8,3 C 87 % 997,6 hPa 0,0 l/m 0 min 2 min 0 W/m 16,1 km/h (3 Bft) 93,62 %
01.11.2023 17:00 13,4 C 12,8 C 8,3 C 87 % 997,6 hPa 0,0 l/m 0 min 2 min 0 W/m 12,9 km/h (3 Bft) 97,87 %
01.11.2023 17:02 13,3 C 12,2 C 8,3 C 87 % 997,6 hPa 0,0 l/m 0 min 0 min 0 W/m 16,1 km/h (3 Bft) 96,00 %
01.11.2023 17:04 13,3 C 12,2 C 8,3 C 87 % 997,6 hPa 0,0 l/m 0 min 0 min 0 W/m 19,3 km/h (3 Bft) 97,87 %
01.11.2023 17:06 13,3 C 12,2 C 8,3 C 88 % 997,5 hPa 0,0 l/m 0 min 2 min 0 W/m 19,3 km/h (3 Bft) 97,92 %
01.11.2023 17:08 13,3 C 12,2 C 8,3 C 88 % 997,5 hPa 0,0 l/m 0 min 2 min 0 W/m 12,9 km/h (3 Bft) 97,87 %
01.11.2023 17:10 13,2 C 12,2 C 8,3 C 88 % 997,5 hPa 0,0 l/m 0 min 2 min 0 W/m 16,1 km/h (3 Bft) 93,62 %
01.11.2023 17:12 13,2 C 12,2 C 8,3 C 88 % 997,5 hPa 0,0 l/m 0 min 2 min 0 W/m 19,3 km/h (3 Bft) 95,65 %
01.11.2023 17:14 13,2 C 12,2 C 8,3 C 88 % 997,6 hPa 0,0 l/m 0 min 2 min 0 W/m 16,1 km/h (3 Bft) 89,36 %
01.11.2023 17:16 13,2 C 12,2 C 7,8 C 88 % 997,6 hPa 0,0 l/m 0 min 0 min 0 W/m 12,9 km/h (3 Bft) 91,49 %
01.11.2023 17:18 13,2 C 12,2 C 7,8 C 88 % 997,6 hPa 0,0 l/m 0 min 0 min 0 W/m 12,9 km/h (3 Bft) 93,62 %
01.11.2023 17:20 13,2 C 12,2 C 7,8 C 88 % 997,6 hPa 0,0 l/m 0 min 2 min 0 W/m 16,1 km/h (3 Bft) 95,74 %
01.11.2023 17:22 13,2 C 12,2 C 7,8 C 88 % 997,7 hPa 0,2 l/m 0 min 2 min 0 W/m 12,9 km/h (3 Bft) 95,74 %
01.11.2023 17:24 13,1 C 12,2 C 7,8 C 88 % 997,7 hPa 0,0 l/m 0 min 2 min 0 W/m 16,1 km/h (3 Bft) 95,74 %
01.11.2023 17:26 13,1 C 12,2 C 7,8 C 89 % 997,6 hPa 0,0 l/m 0 min 2 min 0 W/m 12,9 km/h (3 Bft) 94,29 %
01.11.2023 17:28 13,1 C 12,2 C 7,8 C 89 % 997,7 hPa 0,0 l/m 0 min 0 min 0 W/m 16,1 km/h (3 Bft) 95,74 %
01.11.2023 17:30 13,1 C 12,2 C 7,8 C 89 % 997,7 hPa 0,0 l/m 0 min 0 min 0 W/m 9,7 km/h (2 Bft) 95,74 %
01.11.2023 17:32 13,0 C 12,2 C 7,8 C 89 % 997,8 hPa 0,0 l/m 0 min 0 min 0 W/m 16,1 km/h (3 Bft) 95,74 %
01.11.2023 17:34 12,9 C 12,2 C 7,8 C 89 % 997,8 hPa 0,0 l/m 0 min 0 min 0 W/m 12,9 km/h (3 Bft) 95,65 %
01.11.2023 17:36 12,9 C 12,2 C 7,8 C 89 % 997,8 hPa 0,0 l/m 0 min 0 min 0 W/m 12,9 km/h (3 Bft) 95,74 %
01.11.2023 17:38 12,9 C 12,2 C 7,8 C 89 % 997,8 hPa 0,0 l/m 0 min 0 min 0 W/m 22,5 km/h (4 Bft) 95,74 %
01.11.2023 17:40 12,9 C 12,2 C 7,8 C 89 % 997,9 hPa 0,0 l/m 0 min 0 min 0 W/m 22,5 km/h (4 Bft) 95,74 %
01.11.2023 17:42 12,9 C 12,2 C 7,8 C 89 % 997,9 hPa 0,0 l/m 0 min 0 min 0 W/m 19,3 km/h (3 Bft) 95,74 %
01.11.2023 17:44 12,9 C 12,2 C 7,8 C 89 % 997,9 hPa 0,0 l/m 0 min 0 min 0 W/m 22,5 km/h (4 Bft) 93,62 %
01.11.2023 17:46 12,9 C 12,2 C 7,8 C 89 % 997,9 hPa 0,0 l/m 0 min 0 min 0 W/m 25,7 km/h (4 Bft) 95,74 %
01.11.2023 17:48 12,9 C 12,2 C 7,2 C 88 % 997,9 hPa 0,0 l/m 0 min 0 min 0 W/m 38,6 km/h (5 Bft) 97,87 %
01.11.2023 17:50 13,0 C 12,8 C 7,2 C 87 % 998,0 hPa 0,0 l/m 0 min 0 min 0 W/m 29,0 km/h (5 Bft) 95,74 %
01.11.2023 17:52 13,1 C 12,8 C 7,2 C 86 % 998,0 hPa 0,0 l/m 0 min 0 min 0 W/m 29,0 km/h (5 Bft) 97,87 %
01.11.2023 17:54 13,1 C 12,8 C 7,2 C 85 % 998,0 hPa 0,0 l/m 0 min 0 min 0 W/m 35,4 km/h (5 Bft) 100,00 %
01.11.2023 17:56 13,2 C 12,8 C 7,2 C 85 % 997,9 hPa 0,0 l/m 0 min 0 min 0 W/m 25,7 km/h (4 Bft) 97,87 %
01.11.2023 17:58 13,2 C 12,8 C 7,2 C 85 % 998,0 hPa 0,0 l/m 0 min 0 min 0 W/m 41,8 km/h (6 Bft) 100,00 %
01.11.2023 18:00 13,3 C 12,8 C 7,2 C 84 % 998,0 hPa 0,0 l/m 0 min 0 min 0 W/m 45,1 km/h (6 Bft) 97,83 %
01.11.2023 18:02 13,3 C 12,8 C 7,2 C 83 % 998,0 hPa 0,0 l/m 0 min 0 min 0 W/m 29,0 km/h (5 Bft) 100,00 %
01.11.2023 18:04 13,3 C 12,8 C 7,2 C 83 % 998,0 hPa 0,0 l/m 0 min 0 min 0 W/m 22,5 km/h (4 Bft) 97,83 %
01.11.2023 18:08 13,4 C 12,8 C 7,2 C 83 % 998,0 hPa 0,0 l/m 0 min 0 min 0 W/m 25,7 km/h (4 Bft) 100,00 %
01.11.2023 18:10 13,4 C 12,8 C 7,2 C 83 % 997,9 hPa 0,0 l/m 0 min 0 min 0 W/m 22,5 km/h (4 Bft) 97,87 %
01.11.2023 18:12 13,4 C 12,8 C 7,8 C 83 % 997,9 hPa 0,0 l/m 0 min 0 min 0 W/m 38,6 km/h (5 Bft) 97,87 %
01.11.2023 18:16 13,4 C 12,8 C 7,8 C 83 % 998,0 hPa 0,0 l/m 0 min 0 min 0 W/m 38,6 km/h (5 Bft) 98,94 %
01.11.2023 18:18 13,4 C 12,8 C 7,8 C 83 % 998,0 hPa 0,0 l/m 0 min 0 min 0 W/m 29,0 km/h (5 Bft) 100,00 %
01.11.2023 18:20 13,3 C 12,8 C 7,8 C 83 % 998,0 hPa 0,0 l/m 0 min 0 min 0 W/m 22,5 km/h (4 Bft) 100,00 %
01.11.2023 18:22 13,3 C 12,8 C 7,8 C 83 % 998,1 hPa 0,0 l/m 0 min 0 min 0 W/m 25,7 km/h (4 Bft) 97,87 %
01.11.2023 18:24 13,3 C 12,8 C 7,8 C 83 % 998,1 hPa 0,0 l/m 0 min 0 min 0 W/m 35,4 km/h (5 Bft) 97,87 %
01.11.2023 18:26 13,3 C 12,8 C 7,8 C 83 % 998,1 hPa 0,0 l/m 0 min 0 min 0 W/m 22,5 km/h (4 Bft) 100,00 %
01.11.2023 18:28 13,3 C 12,8 C 7,8 C 83 % 998,1 hPa 0,0 l/m 0 min 0 min 0 W/m 29,0 km/h (5 Bft) 97,87 %
01.11.2023 18:30 13,3 C 12,8 C 8,3 C 82 % 998,1 hPa 0,0 l/m 0 min 0 min 0 W/m 25,7 km/h (4 Bft) 100,00 %
01.11.2023 18:32 13,3 C 12,8 C 8,9 C 82 % 998,1 hPa 0,0 l/m 0 min 0 min 0 W/m 16,1 km/h (3 Bft) 97,87 %
01.11.2023 18:34 13,3 C 12,8 C 8,9 C 82 % 998,2 hPa 0,0 l/m 0 min 0 min 0 W/m 16,1 km/h (3 Bft) 97,83 %
01.11.2023 18:36 13,3 C 12,2 C 8,9 C 83 % 998,2 hPa 0,0 l/m 0 min 2 min 0 W/m 12,9 km/h (3 Bft) 100,00 %
01.11.2023 18:38 13,3 C 12,2 C 8,9 C 83 % 998,2 hPa 0,0 l/m 0 min 0 min 0 W/m 16,1 km/h (3 Bft) 100,00 %
01.11.2023 18:40 13,3 C 12,2 C 8,9 C 83 % 998,2 hPa 0,0 l/m 0 min 0 min 0 W/m 19,3 km/h (3 Bft) 97,87 %
01.11.2023 18:42 13,2 C 12,2 C 8,3 C 83 % 998,1 hPa 0,0 l/m 0 min 0 min 0 W/m 19,3 km/h (3 Bft) 100,00 %
01.11.2023 18:44 13,2 C 12,2 C 8,9 C 83 % 998,1 hPa 0,0 l/m 0 min 0 min 0 W/m 35,4 km/h (5 Bft) 100,00 %
01.11.2023 18:46 13,1 C 12,2 C 8,9 C 83 % 998,1 hPa 0,0 l/m 0 min 0 min 0 W/m 19,3 km/h (3 Bft) 97,87 %
01.11.2023 18:48 13,1 C 12,2 C 8,9 C 84 % 998,1 hPa 0,0 l/m 0 min 0 min 0 W/m 25,7 km/h (4 Bft) 100,00 %
01.11.2023 18:50 13,1 C 12,2 C 8,9 C 83 % 998,2 hPa 0,0 l/m 0 min 0 min 0 W/m 19,3 km/h (3 Bft) 100,00 %
01.11.2023 18:52 13,1 C 12,2 C 8,9 C 83 % 998,1 hPa 0,0 l/m 0 min 0 min 0 W/m 25,7 km/h (4 Bft) 97,87 %
01.11.2023 18:54 13,1 C 12,2 C 8,9 C 83 % 998,1 hPa 0,0 l/m 0 min 0 min 0 W/m 22,5 km/h (4 Bft) 93,62 %
01.11.2023 18:56 13,0 C 12,2 C 8,9 C 84 % 998,1 hPa 0,0 l/m 0 min 0 min 0 W/m 22,5 km/h (4 Bft) 100,00 %
01.11.2023 18:58 13,0 C 12,2 C 8,9 C 84 % 998,1 hPa 0,0 l/m 0 min 0 min 0 W/m 25,7 km/h (4 Bft) 97,87 %
01.11.2023 19:00 12,9 C 12,2 C 8,9 C 83 % 998,0 hPa 0,0 l/m 0 min 0 min 0 W/m 25,7 km/h (4 Bft) 100,00 %
01.11.2023 19:02 12,9 C 12,2 C 8,3 C 84 % 998,0 hPa 0,0 l/m 0 min 0 min 0 W/m 19,3 km/h (3 Bft) 100,00 %
01.11.2023 19:04 12,9 C 12,2 C 8,3 C 83 % 998,0 hPa 0,0 l/m 0 min 0 min 0 W/m 16,1 km/h (3 Bft) 97,87 %
01.11.2023 19:10 12,8 C 11,7 C 8,3 C 84 % 998,1 hPa 0,0 l/m 0 min 0 min 0 W/m 29,0 km/h (5 Bft) 92,91 %
01.11.2023 19:12 12,7 C 11,7 C 8,3 C 84 % 998,1 hPa 0,0 l/m 0 min 0 min 0 W/m 12,9 km/h (3 Bft) 93,62 %
01.11.2023 19:14 12,7 C 11,7 C 8,3 C 84 % 998,1 hPa 0,0 l/m 0 min 0 min 0 W/m 16,1 km/h (3 Bft) 95,74 %
01.11.2023 19:16 12,6 C 11,7 C 8,3 C 84 % 998,2 hPa 0,0 l/m 0 min 0 min 0 W/m 35,4 km/h (5 Bft) 93,48 %
01.11.2023 19:18 12,6 C 11,7 C 8,3 C 84 % 998,1 hPa 0,0 l/m 0 min 0 min 0 W/m 25,7 km/h (4 Bft) 95,74 %
01.11.2023 19:20 12,6 C 11,7 C 8,3 C 84 % 998,0 hPa 0,0 l/m 0 min 0 min 0 W/m 29,0 km/h (5 Bft) 93,62 %
01.11.2023 19:22 12,6 C 11,7 C 8,3 C 84 % 998,1 hPa 0,0 l/m 0 min 0 min 0 W/m 19,3 km/h (3 Bft) 93,62 %
01.11.2023 19:24 12,5 C 11,7 C 8,3 C 84 % 998,1 hPa 0,0 l/m 0 min 0 min 0 W/m 12,9 km/h (3 Bft) 95,74 %
01.11.2023 19:26 12,4 C 11,7 C 7,8 C 84 % 998,0 hPa 0,0 l/m 0 min 0 min 0 W/m 19,3 km/h (3 Bft) 95,74 %
01.11.2023 19:28 12,4 C 11,7 C 7,8 C 84 % 998,0 hPa 0,0 l/m 0 min 0 min 0 W/m 19,3 km/h (3 Bft) 91,49 %
01.11.2023 19:30 12,3 C 11,1 C 7,8 C 84 % 998,0 hPa 0,0 l/m 0 min 0 min 0 W/m 19,3 km/h (3 Bft) 95,74 %
01.11.2023 19:32 12,3 C 11,1 C 7,8 C 85 % 998,0 hPa 0,0 l/m 0 min 0 min 0 W/m 22,5 km/h (4 Bft) 95,74 %
01.11.2023 19:34 12,3 C 11,1 C 7,8 C 85 % 998,1 hPa 0,0 l/m 0 min 0 min 0 W/m 29,0 km/h (5 Bft) 93,48 %
01.11.2023 19:36 12,2 C 11,1 C 7,8 C 85 % 998,0 hPa 0,0 l/m 0 min 0 min 0 W/m 12,9 km/h (3 Bft) 95,74 %
01.11.2023 19:38 12,2 C 11,1 C 7,8 C 85 % 998,0 hPa 0,0 l/m 0 min 0 min 0 W/m 19,3 km/h (3 Bft) 91,49 %
01.11.2023 19:40 12,2 C 11,1 C 7,8 C 85 % 998,0 hPa 0,0 l/m 0 min 0 min 0 W/m 19,3 km/h (3 Bft) 97,37 %
01.11.2023 19:45 12,1 C 11,1 C 7,8 C 85 % 998,0 hPa 0,0 l/m 0 min 0 min 0 W/m 16,1 km/h (3 Bft) 96,49 %
01.11.2023 19:50 11,9 C 11,1 C 7,8 C 86 % 998,0 hPa 0,0 l/m 0 min 0 min 0 W/m 29,0 km/h (5 Bft) 97,37 %
01.11.2023 19:55 11,9 C 11,1 C 7,8 C 86 % 998,0 hPa 0,0 l/m 0 min 0 min 0 W/m 19,3 km/h (3 Bft) 98,25 %
01.11.2023 20:00 11,8 C 10,6 C 7,8 C 86 % 997,8 hPa 0,0 l/m 0 min 0 min 0 W/m 22,5 km/h (4 Bft) 98,25 %
01.11.2023 20:05 11,7 C 10,6 C 7,8 C 86 % 997,8 hPa 0,0 l/m 0 min 0 min 0 W/m 35,4 km/h (5 Bft) 99,12 %
01.11.2023 20:10 11,7 C 11,1 C 7,8 C 86 % 997,8 hPa 0,0 l/m 0 min 0 min 0 W/m 19,3 km/h (3 Bft) 100,00 %
01.11.2023 20:15 11,7 C 11,1 C 7,8 C 87 % 997,7 hPa 0,0 l/m 0 min 0 min 0 W/m 22,5 km/h (4 Bft) 98,25 %
01.11.2023 20:20 11,7 C 10,6 C 7,8 C 86 % 997,7 hPa 0,0 l/m 0 min 0 min 0 W/m 35,4 km/h (5 Bft) 100,00 %
01.11.2023 20:25 11,6 C 10,6 C 7,2 C 87 % 997,6 hPa 0,0 l/m 0 min 0 min 0 W/m 22,5 km/h (4 Bft) 100,00 %
01.11.2023 20:30 11,6 C 10,6 C 7,8 C 87 % 997,6 hPa 0,0 l/m 0 min 0 min 0 W/m 22,5 km/h (4 Bft) 100,00 %
01.11.2023 20:35 11,6 C 10,6 C 7,2 C 87 % 997,6 hPa 0,0 l/m 0 min 0 min 0 W/m 32,2 km/h (5 Bft) 100,00 %
01.11.2023 20:40 11,6 C 11,1 C 7,8 C 87 % 997,5 hPa 0,0 l/m 0 min 0 min 0 W/m 32,2 km/h (5 Bft) 100,00 %
01.11.2023 20:45 11,6 C 11,1 C 7,8 C 87 % 997,5 hPa 0,0 l/m 0 min 0 min 0 W/m 25,7 km/h (4 Bft) 100,00 %
01.11.2023 20:50 11,7 C 11,1 C 7,8 C 87 % 997,5 hPa 0,0 l/m 0 min 0 min 0 W/m 41,8 km/h (6 Bft) 100,00 %
01.11.2023 20:55 11,7 C 11,1 C 7,8 C 87 % 997,5 hPa 0,0 l/m 0 min 0 min 0 W/m 16,1 km/h (3 Bft) 100,00 %
01.11.2023 21:00 11,6 C 10,6 C 7,8 C 86 % 997,4 hPa 0,0 l/m 0 min 0 min 0 W/m 16,1 km/h (3 Bft) 100,00 %
01.11.2023 21:05 11,6 C 10,6 C 7,2 C 86 % 997,4 hPa 0,0 l/m 0 min 0 min 0 W/m 35,4 km/h (5 Bft) 100,00 %
01.11.2023 21:10 11,6 C 10,6 C 7,2 C 86 % 997,4 hPa 0,0 l/m 0 min 0 min 0 W/m 19,3 km/h (3 Bft) 100,00 %
01.11.2023 21:15 11,6 C 10,6 C 7,2 C 86 % 997,4 hPa 0,0 l/m 0 min 0 min 0 W/m 19,3 km/h (3 Bft) 99,12 %
01.11.2023 21:20 11,5 C 10,6 C 7,2 C 87 % 997,3 hPa 0,0 l/m 0 min 0 min 0 W/m 19,3 km/h (3 Bft) 99,12 %
01.11.2023 21:25 11,4 C 10,6 C 7,2 C 87 % 997,3 hPa 0,0 l/m 0 min 0 min 0 W/m 16,1 km/h (3 Bft) 100,00 %
01.11.2023 21:30 11,4 C 10,6 C 7,2 C 87 % 997,3 hPa 0,0 l/m 0 min 0 min 0 W/m 19,3 km/h (3 Bft) 100,00 %
01.11.2023 21:35 11,4 C 10,6 C 7,2 C 87 % 997,3 hPa 0,0 l/m 0 min 0 min 0 W/m 19,3 km/h (3 Bft) 100,00 %
01.11.2023 21:40 11,3 C 10,6 C 7,2 C 87 % 997,3 hPa 0,0 l/m 0 min 0 min 0 W/m 16,1 km/h (3 Bft) 100,00 %
01.11.2023 21:45 11,3 C 10,6 C 7,2 C 87 % 997,3 hPa 0,0 l/m 0 min 0 min 0 W/m 16,1 km/h (3 Bft) 100,00 %
01.11.2023 21:50 11,3 C 10,6 C 7,2 C 87 % 997,1 hPa 0,0 l/m 0 min 0 min 0 W/m 16,1 km/h (3 Bft) 100,00 %
01.11.2023 21:55 11,4 C 10,6 C 7,2 C 87 % 997,1 hPa 0,0 l/m 0 min 0 min 0 W/m 16,1 km/h (3 Bft) 100,00 %
01.11.2023 22:00 11,4 C 10,6 C 7,2 C 87 % 997,0 hPa 0,0 l/m 0 min 0 min 0 W/m 19,3 km/h (3 Bft) 100,00 %
01.11.2023 22:05 11,4 C 10,6 C 7,2 C 87 % 996,9 hPa 0,0 l/m 0 min 0 min 0 W/m 12,9 km/h (3 Bft) 100,00 %
01.11.2023 22:10 11,4 C 10,6 C 7,2 C 87 % 996,8 hPa 0,0 l/m 0 min 0 min 0 W/m 19,3 km/h (3 Bft) 97,37 %
01.11.2023 22:15 11,4 C 10,6 C 7,2 C 87 % 996,6 hPa 0,0 l/m 0 min 0 min 0 W/m 16,1 km/h (3 Bft) 98,25 %
01.11.2023 22:20 11,4 C 10,6 C 7,2 C 87 % 996,5 hPa 0,0 l/m 0 min 0 min 0 W/m 16,1 km/h (3 Bft) 96,49 %
01.11.2023 22:25 11,4 C 10,6 C 7,2 C 87 % 996,4 hPa 0,0 l/m 0 min 0 min 0 W/m 12,9 km/h (3 Bft) 98,25 %
01.11.2023 22:30 11,4 C 10,6 C 7,2 C 87 % 996,4 hPa 0,0 l/m 0 min 0 min 0 W/m 12,9 km/h (3 Bft) 97,37 %
01.11.2023 22:35 11,4 C 10,6 C 7,2 C 87 % 996,2 hPa 0,0 l/m 0 min 0 min 0 W/m 22,5 km/h (4 Bft) 96,49 %
01.11.2023 22:40 11,4 C 10,6 C 7,2 C 87 % 996,2 hPa 0,0 l/m 0 min 0 min 0 W/m 12,9 km/h (3 Bft) 96,49 %
01.11.2023 22:45 11,3 C 10,6 C 7,2 C 87 % 996,2 hPa 0,0 l/m 0 min 0 min 0 W/m 6,4 km/h (2 Bft) 99,12 %
01.11.2023 22:50 11,3 C 10,6 C 7,2 C 87 % 996,2 hPa 0,0 l/m 0 min 0 min 0 W/m 12,9 km/h (3 Bft) 97,37 %
01.11.2023 22:55 11,2 C 10,6 C 7,2 C 87 % 996,0 hPa 0,0 l/m 0 min 0 min 0 W/m 16,1 km/h (3 Bft) 98,25 %
01.11.2023 23:00 11,1 C 10,0 C 7,2 C 87 % 996,0 hPa 0,0 l/m 0 min 0 min 0 W/m 12,9 km/h (3 Bft) 99,12 %
01.11.2023 23:05 11,1 C 10,0 C 7,2 C 87 % 995,9 hPa 0,0 l/m 0 min 0 min 0 W/m 16,1 km/h (3 Bft) 98,25 %
01.11.2023 23:10 11,0 C 10,0 C 6,7 C 88 % 995,9 hPa 0,0 l/m 0 min 0 min 0 W/m 6,4 km/h (2 Bft) 100,00 %
01.11.2023 23:15 10,9 C 10,0 C 6,7 C 88 % 995,9 hPa 0,0 l/m 0 min 0 min 0 W/m 6,4 km/h (2 Bft) 98,25 %
01.11.2023 23:20 10,9 C 10,0 C 6,7 C 88 % 995,8 hPa 0,0 l/m 0 min 0 min 0 W/m 6,4 km/h (2 Bft) 100,00 %
01.11.2023 23:25 10,8 C 10,0 C 6,7 C 88 % 995,6 hPa 0,0 l/m 0 min 0 min 0 W/m 12,9 km/h (3 Bft) 100,00 %
01.11.2023 23:30 10,7 C 9,4 C 6,7 C 88 % 995,5 hPa 0,0 l/m 0 min 0 min 0 W/m 6,4 km/h (2 Bft) 100,00 %
01.11.2023 23:35 10,7 C 9,4 C 6,7 C 89 % 995,4 hPa 0,0 l/m 0 min 0 min 0 W/m 6,4 km/h (2 Bft) 100,00 %
01.11.2023 23:40 10,6 C 9,4 C 6,7 C 89 % 995,4 hPa 0,0 l/m 0 min 0 min 0 W/m 6,4 km/h (2 Bft) 100,00 %
01.11.2023 23:45 10,4 C 9,4 C 6,1 C 89 % 995,3 hPa 0,0 l/m 0 min 0 min 0 W/m 12,9 km/h (3 Bft) 100,00 %
01.11.2023 23:50 10,4 C 9,4 C 6,1 C 90 % 995,3 hPa 0,0 l/m 0 min 0 min 0 W/m 6,4 km/h (2 Bft) 100,00 %
01.11.2023 23:55 10,3 C 9,4 C 6,1 C 90 % 995,2 hPa 0,0 l/m 0 min 0 min 0 W/m 6,4 km/h (2 Bft) 100,00 %
_ Min-Zeit 23:55 23:30 23:45 18:30 23:55 - - - - 02:12 16:40
Minimum _ 10,3 C 9,4 C 6,1 C 82 % 995,2 hPa - - - - 0,0 km/h (0 Bft) 50,00 %
_ Max-Zeit 13:08 11:20 13:38 06:14 00:00 04:04 00:00 04:04 12:56 18:00 00:10
Maximum _ 14,8 C 14,4 C 10,6 C 99 % 1006,2 hPa 0,4 l/m 0 min 5 min 195 W/m 45,1 km/h
S-SO (6 Bft)
100,00 %
Durchschnitt _ 12,3 C 11,7 C 8,1 C 92 % 1000,9 hPa #4,2 l/m #0 min. #3:35 h 83 W/m 13,7 km/h (3 Bft) 97,50 %
© 2023 W. Hausmann